Observation data for Mertzon on 11/09/2019      Previous  Date       Current Mesonet Observations  Soil Data  Daily Summary Page  Observations in Plain Language
KME1 090600Z 30000KT 06/06 A3034 RMK A01 T00570057  RH  100%=      5-min Rain = 0
KME1 090601Z 30000KT 06/06 A3034 RMK A01 T00570057  RH  100%=      5-min Rain = 0
KME1 090602Z 29000KT 06/06 A3034 RMK A01 T00570057  RH  100%=      5-min Rain = 0
KME1 090603Z 26001KT 06/06 A3034 RMK A01 T00570057  RH  100%=      5-min Rain = 0
KME1 090604Z 26001KT 06/06 A3034 RMK A01 T00570057  RH  100%=      5-min Rain = 0
KME1 090605Z 25001KT 06/06 A3034 RMK A01 T00570057  RH  100%=      5-min Rain = 0
KME1 090606Z 24001KT 06/06 A3034 RMK A01 T00560056  RH  100%=      5-min Rain = 0
KME1 090607Z 22001KT 06/06 A3033 RMK A01 T00570057  RH  100%=      5-min Rain = 0
KME1 090608Z 21001KT 06/06 A3033 RMK A01 T00560056  RH  100%=      5-min Rain = 0
KME1 090609Z 21001KT 06/06 A3033 RMK A01 T00570057  RH  100%=      5-min Rain = 0
KME1 090610Z 21002KT 06/06 A3033 RMK A01 T00570056  RH  100%=      5-min Rain = 0
KME1 090611Z 21002KT 06/06 A3033 RMK A01 T00570057  RH  100%=      5-min Rain = 0
KME1 090612Z 21002KT 06/06 A3033 RMK A01 T00560056  RH  100%=      5-min Rain = 0
KME1 090613Z 21002KT 06/06 A3033 RMK A01 T00560056  RH  100%=      5-min Rain = 0
KME1 090614Z 21002KT 06/06 A3033 RMK A01 T00560056  RH  100%=      5-min Rain = 0
KME1 090615Z 21001KT 06/06 A3033 RMK A01 T00560056  RH  100%=      5-min Rain = 0
KME1 090616Z 22002KT 06/06 A3033 RMK A01 T00560056  RH  100%=      5-min Rain = 0
KME1 090617Z 22002KT 06/06 A3033 RMK A01 T00560056  RH  100%=      5-min Rain = 0
KME1 090618Z 22002KT 06/06 A3033 RMK A01 T00560056  RH  100%=      5-min Rain = 0
KME1 090619Z 22002KT 06/06 A3033 RMK A01 T00570057  RH  100%=      5-min Rain = 0
KME1 090620Z 22002KT 06/06 A3033 RMK A01 T00570057  RH  100%=      5-min Rain = 0
KME1 090621Z 22002KT 06/06 A3033 RMK A01 T00570057  RH  100%=      5-min Rain = 0
KME1 090622Z 22002KT 06/06 A3033 RMK A01 T00570057  RH  100%=      5-min Rain = 0
KME1 090623Z 22003KT 06/06 A3033 RMK A01 T00570057  RH  100%=      5-min Rain = 0
KME1 090624Z 21003KT 06/06 A3033 RMK A01 T00570057  RH  100%=      5-min Rain = 0
KME1 090625Z 21003KT 06/06 A3033 RMK A01 T00570057  RH  100%=      5-min Rain = 0
KME1 090626Z 20003KT 06/06 A3033 RMK A01 T00560056  RH  100%=      5-min Rain = 0
KME1 090627Z 20003KT 06/06 A3033 RMK A01 T00560056  RH  100%=      5-min Rain = 0
KME1 090628Z 20003KT 06/06 A3033 RMK A01 T00550055  RH  100%=      5-min Rain = 0
KME1 090629Z 20003KT 06/06 A3033 RMK A01 T00550055  RH  100%=      5-min Rain = 0
KME1 090630Z 21003KT 06/06 A3033 RMK A01 T00550055  RH  100%=      5-min Rain = 0
KME1 090631Z 20003KT 06/06 A3033 RMK A01 T00550055  RH  100%=      5-min Rain = 0
KME1 090632Z 21003KT 06/06 A3033 RMK A01 T00550055  RH  100%=      5-min Rain = 0
KME1 090633Z 20003KT 06/06 A3033 RMK A01 T00550055  RH  100%=      5-min Rain = 0
KME1 090634Z 20003KT 06/06 A3033 RMK A01 T00550055  RH  100%=      5-min Rain = 0
KME1 090635Z 21003KT 05/05 A3034 RMK A01 T00540054  RH  100%=      5-min Rain = 0
KME1 090636Z 21003KT 05/05 A3034 RMK A01 T00540054  RH  100%=      5-min Rain = 0
KME1 090637Z 21003KT 05/05 A3034 RMK A01 T00540054  RH  100%=      5-min Rain = 0
KME1 090638Z 21003KT 05/05 A3034 RMK A01 T00540054  RH  100%=      5-min Rain = 0
KME1 090639Z 21003KT 05/05 A3034 RMK A01 T00540054  RH  100%=      5-min Rain = 0
KME1 090640Z 21004KT 05/05 A3034 RMK A01 T00540054  RH  100%=      5-min Rain = 0
KME1 090641Z 21004KT 05/05 A3034 RMK A01 T00540054  RH  100%=      5-min Rain = 0
KME1 090642Z 20004KT 05/05 A3033 RMK A01 T00540054  RH  100%=      5-min Rain = 0
KME1 090643Z 20004KT 05/05 A3033 RMK A01 T00540054  RH  100%=      5-min Rain = 0
KME1 090644Z 20004KT 05/05 A3033 RMK A01 T00540054  RH  100%=      5-min Rain = 0
KME1 090645Z 20003KT 05/05 A3033 RMK A01 T00540054  RH  100%=      5-min Rain = 0
KME1 090646Z 19003KT 05/05 A3033 RMK A01 T00540054  RH  100%=      5-min Rain = 0
KME1 090647Z 19003KT 05/05 A3033 RMK A01 T00540054  RH  100%=      5-min Rain = 0
KME1 090648Z 19003KT 05/05 A3033 RMK A01 T00540054  RH  100%=      5-min Rain = 0
KME1 090649Z 19003KT 05/05 A3033 RMK A01 T00540054  RH  100%=      5-min Rain = 0
KME1 090650Z 19003KT 05/05 A3033 RMK A01 T00540054  RH  100%=      5-min Rain = 0
KME1 090651Z 18003KT 05/05 A3033 RMK A01 T00540054  RH  100%=      5-min Rain = 0
KME1 090652Z 18003KT 05/05 A3033 RMK A01 T00540054  RH  100%=      5-min Rain = 0
KME1 090653Z 18002KT 05/05 A3033 RMK A01 T00540054  RH  100%=      5-min Rain = 0
KME1 090654Z 19002KT 05/05 A3033 RMK A01 T00540054  RH  100%=      5-min Rain = 0
KME1 090655Z 19002KT 05/05 A3033 RMK A01 T00540054  RH  100%=      5-min Rain = 0
KME1 090656Z 19002KT 05/05 A3033 RMK A01 T00530053  RH  100%=      5-min Rain = 0
KME1 090657Z 19001KT 05/05 A3033 RMK A01 T00540054  RH  100%=      5-min Rain = 0
KME1 090658Z 20001KT 05/05 A3033 RMK A01 T00530053  RH  100%=      5-min Rain = 0
KME1 090659Z 20001KT 05/05 A3033 RMK A01 T00530053  RH  100%=      5-min Rain = 0
KME1 090700Z 21001KT 05/05 A3033 RMK A01 T00530053  RH  100%=      5-min Rain = 0
KME1 090701Z 21001KT 05/05 A3033 RMK A01 T00530053  RH  100%=      5-min Rain = 0
KME1 090702Z 20001KT 05/05 A3033 RMK A01 T00530053  RH  100%=      5-min Rain = 0
KME1 090703Z 20001KT 05/05 A3033 RMK A01 T00530053  RH  100%=      5-min Rain = 0
KME1 090704Z 19001KT 05/05 A3033 RMK A01 T00530053  RH  100%=      5-min Rain = 0
KME1 090705Z 19001KT 05/05 A3033 RMK A01 T00530053  RH  100%=      5-min Rain = 0
KME1 090706Z 18001KT 05/05 A3033 RMK A01 T00530053  RH  100%=      5-min Rain = 0
KME1 090707Z 18001KT 05/05 A3033 RMK A01 T00530053  RH  100%=      5-min Rain = 0
KME1 090708Z 17001KT 05/05 A3033 RMK A01 T00530053  RH  100%=      5-min Rain = 0
KME1 090709Z 18001KT 05/05 A3033 RMK A01 T00530053  RH  100%=      5-min Rain = 0
KME1 090710Z 18001KT 05/05 A3033 RMK A01 T00530053  RH  100%=      5-min Rain = 0
KME1 090711Z 20001KT 05/05 A3033 RMK A01 T00530053  RH  100%=      5-min Rain = 0
KME1 090712Z 20001KT 05/05 A3033 RMK A01 T00530053  RH  100%=      5-min Rain = 0
KME1 090713Z 21001KT 05/05 A3033 RMK A01 T00530053  RH  100%=      5-min Rain = 0
KME1 090714Z 20001KT 05/05 A3033 RMK A01 T00520052  RH  100%=      5-min Rain = 0
KME1 090715Z 19001KT 05/05 A3033 RMK A01 T00520052  RH  100%=      5-min Rain = 0
KME1 090722Z 19002KT 05/05 A3033 RMK A01 T00510051  RH  100%=      5-min Rain = 0
KME1 090723Z 19001KT 05/05 A3033 RMK A01 T00510051  RH  100%=      5-min Rain = 0
KME1 090724Z 19001KT 05/05 A3033 RMK A01 T00520052  RH  100%=      5-min Rain = 0
KME1 090725Z 19002KT 05/05 A3032 RMK A01 T00510051  RH  100%=      5-min Rain = 0
KME1 090726Z 19001KT 05/05 A3032 RMK A01 T00520052  RH  100%=      5-min Rain = 0
KME1 090727Z 19002KT 05/05 A3032 RMK A01 T00510051  RH  100%=      5-min Rain = 0
KME1 090728Z 19002KT 05/05 A3032 RMK A01 T00510051  RH  100%=      5-min Rain = 0
KME1 090729Z 19002KT 05/05 A3032 RMK A01 T00510051  RH  100%=      5-min Rain = 0
KME1 090730Z 20002KT 05/05 A3032 RMK A01 T00500050  RH  100%=      5-min Rain = 0
KME1 090731Z 20002KT 05/05 A3032 RMK A01 T00500050  RH  100%=      5-min Rain = 0
KME1 090732Z 19002KT 05/05 A3032 RMK A01 T00490049  RH  100%=      5-min Rain = 0
KME1 090733Z 19003KT 05/05 A3032 RMK A01 T00490049  RH  100%=      5-min Rain = 0
KME1 090734Z 19003KT 05/05 A3032 RMK A01 T00490049  RH  100%=      5-min Rain = 0
KME1 090735Z 19004KT 05/05 A3032 RMK A01 T00490049  RH  100%=      5-min Rain = 0
KME1 090736Z 19004KT 05/05 A3032 RMK A01 T00490049  RH  100%=      5-min Rain = 0
KME1 090737Z 19004KT 05/05 A3032 RMK A01 T00500050  RH  100%=      5-min Rain = 0
KME1 090738Z 19003KT 05/05 A3032 RMK A01 T00500050  RH  100%=      5-min Rain = 0
KME1 090739Z 20004KT 05/05 A3032 RMK A01 T00500050  RH  100%=      5-min Rain = 0
KME1 090740Z 20003KT 05/05 A3032 RMK A01 T00500050  RH  100%=      5-min Rain = 0
KME1 090741Z 20003KT 05/05 A3032 RMK A01 T00500050  RH  100%=      5-min Rain = 0
KME1 090742Z 20002KT 05/05 A3032 RMK A01 T00500050  RH  100%=      5-min Rain = 0
KME1 090743Z 19002KT 05/05 A3032 RMK A01 T00510051  RH  100%=      5-min Rain = 0
KME1 090744Z 19002KT 05/05 A3032 RMK A01 T00500050  RH  100%=      5-min Rain = 0
KME1 090745Z 19002KT 05/05 A3032 RMK A01 T00500050  RH  100%=      5-min Rain = 0
KME1 090746Z 18003KT 05/05 A3032 RMK A01 T00500050  RH  100%=      5-min Rain = 0
KME1 090747Z 19002KT 05/05 A3032 RMK A01 T00500050  RH  100%=      5-min Rain = 0
KME1 090748Z 19002KT 05/05 A3031 RMK A01 T00490049  RH  100%=      5-min Rain = 0
KME1 090749Z 19002KT 05/05 A3031 RMK A01 T00490049  RH  100%=      5-min Rain = 0
KME1 090750Z 19002KT 05/05 A3031 RMK A01 T00490049  RH  100%=      5-min Rain = 0
KME1 090751Z 19002KT 05/05 A3031 RMK A01 T00490049  RH  100%=      5-min Rain = 0
KME1 090752Z 19002KT 05/05 A3031 RMK A01 T00490049  RH  100%=      5-min Rain = 0
KME1 090753Z 19002KT 05/05 A3031 RMK A01 T00490049  RH  100%=      5-min Rain = 0
KME1 090754Z 19002KT 05/05 A3031 RMK A01 T00490049  RH  100%=      5-min Rain = 0
KME1 090755Z 19002KT 05/05 A3031 RMK A01 T00490049  RH  100%=      5-min Rain = 0
KME1 090756Z 19002KT 05/05 A3031 RMK A01 T00490049  RH  100%=      5-min Rain = 0
KME1 090757Z 18003KT 05/05 A3031 RMK A01 T00490049  RH  100%=      5-min Rain = 0
KME1 090758Z 18003KT 05/05 A3031 RMK A01 T00480048  RH  100%=      5-min Rain = 0
KME1 090759Z 18002KT 05/05 A3031 RMK A01 T00480048  RH  100%=      5-min Rain = 0
KME1 090800Z 18003KT 05/05 A3031 RMK A01 T00480048  RH  100%=      5-min Rain = 0
KME1 090801Z 18003KT 05/05 A3031 RMK A01 T00480048  RH  100%=      5-min Rain = 0
KME1 090802Z 18003KT 05/05 A3031 RMK A01 T00480048  RH  100%=      5-min Rain = 0
KME1 090803Z 19002KT 05/05 A3031 RMK A01 T00480048  RH  100%=      5-min Rain = 0
KME1 090804Z 18002KT 05/05 A3031 RMK A01 T00480048  RH  100%=      5-min Rain = 0
KME1 090805Z 19002KT 05/05 A3031 RMK A01 T00480048  RH  100%=      5-min Rain = 0
KME1 090806Z 19003KT 05/05 A3031 RMK A01 T00480048  RH  100%=      5-min Rain = 0
KME1 090807Z 19003KT 05/05 A3031 RMK A01 T00480048  RH  100%=      5-min Rain = 0
KME1 090808Z 20003KT 05/05 A3031 RMK A01 T00480048  RH  100%=      5-min Rain = 0
KME1 090809Z 20003KT 05/05 A3031 RMK A01 T00480048  RH  100%=      5-min Rain = 0
KME1 090810Z 20003KT 05/05 A3031 RMK A01 T00480048  RH  100%=      5-min Rain = 0
KME1 090811Z 20003KT 05/05 A3031 RMK A01 T00470047  RH  100%=      5-min Rain = 0
KME1 090812Z 21003KT 05/05 A3031 RMK A01 T00460046  RH  100%=      5-min Rain = 0
KME1 090813Z 21003KT 05/05 A3031 RMK A01 T00460046  RH  100%=      5-min Rain = 0
KME1 090814Z 21003KT 05/05 A3031 RMK A01 T00460046  RH  100%=      5-min Rain = 0
KME1 090815Z 21003KT 05/05 A3031 RMK A01 T00460046  RH  100%=      5-min Rain = 0
KME1 090816Z 21004KT 05/05 A3031 RMK A01 T00460046  RH  100%=      5-min Rain = 0
KME1 090817Z 21004KT 05/05 A3031 RMK A01 T00460046  RH  100%=      5-min Rain = 0
KME1 090818Z 21004KT 05/05 A3031 RMK A01 T00460046  RH  100%=      5-min Rain = 0
KME1 090819Z 21004KT 05/05 A3031 RMK A01 T00460046  RH  100%=      5-min Rain = 0
KME1 090820Z 20004KT 05/05 A3031 RMK A01 T00460046  RH  100%=      5-min Rain = 0
KME1 090821Z 20004KT 05/05 A3031 RMK A01 T00450045  RH  100%=      5-min Rain = 0
KME1 090822Z 21004KT 05/05 A3031 RMK A01 T00450045  RH  100%=      5-min Rain = 0
KME1 090823Z 21004KT 05/05 A303 RMK A01 T00450045  RH  100%=      5-min Rain = 0
KME1 090824Z 21004KT 05/05 A303 RMK A01 T00450045  RH  100%=      5-min Rain = 0
KME1 090825Z 21004KT 04/04 A303 RMK A01 T00440044  RH  100%=      5-min Rain = 0
KME1 090826Z 21004KT 05/05 A303 RMK A01 T00450045  RH  100%=      5-min Rain = 0
KME1 090827Z 21004KT 05/05 A303 RMK A01 T00450045  RH  100%=      5-min Rain = 0
KME1 090828Z 21004KT 05/04 A303 RMK A01 T00450044  RH  100%=      5-min Rain = 0
KME1 090829Z 21004KT 05/05 A303 RMK A01 T00450045  RH  100%=      5-min Rain = 0
KME1 090830Z 21003KT 05/05 A303 RMK A01 T00450045  RH  100%=      5-min Rain = 0
KME1 090831Z 21003KT 04/04 A303 RMK A01 T00440044  RH  100%=      5-min Rain = 0
KME1 090832Z 20003KT 04/04 A303 RMK A01 T00440044  RH  100%=      5-min Rain = 0
KME1 090833Z 20003KT 04/04 A303 RMK A01 T00430043  RH  100%=      5-min Rain = 0
KME1 090834Z 20002KT 04/04 A303 RMK A01 T00430043  RH  100%=      5-min Rain = 0
KME1 090835Z 20002KT 04/04 A303 RMK A01 T00430043  RH  100%=      5-min Rain = 0
KME1 090836Z 20003KT 04/04 A303 RMK A01 T00430043  RH  100%=      5-min Rain = 0
KME1 090837Z 20002KT 04/04 A303 RMK A01 T00430043  RH  100%=      5-min Rain = 0
KME1 090838Z 19002KT 04/04 A303 RMK A01 T00430043  RH  100%=      5-min Rain = 0
KME1 090839Z 19002KT 04/04 A303 RMK A01 T00430043  RH  100%=      5-min Rain = 0
KME1 090840Z 20002KT 04/04 A303 RMK A01 T00420042  RH  100%=      5-min Rain = 0
KME1 090841Z 21002KT 04/04 A303 RMK A01 T00420042  RH  100%=      5-min Rain = 0
KME1 090842Z 21002KT 04/04 A303 RMK A01 T00420042  RH  100%=      5-min Rain = 0
KME1 090843Z 21002KT 04/04 A303 RMK A01 T00410041  RH  100%=      5-min Rain = 0
KME1 090844Z 21002KT 04/04 A303 RMK A01 T00410041  RH  100%=      5-min Rain = 0
KME1 090845Z 21002KT 04/04 A303 RMK A01 T00410041  RH  100%=      5-min Rain = 0
KME1 090846Z 22002KT 04/04 A303 RMK A01 T00410041  RH  100%=      5-min Rain = 0
KME1 090847Z 23002KT 04/04 A303 RMK A01 T00410041  RH  100%=      5-min Rain = 0
KME1 090848Z 23002KT 04/04 A303 RMK A01 T00410041  RH  100%=      5-min Rain = 0
KME1 090849Z 22003KT 04/04 A303 RMK A01 T00400040  RH  100%=      5-min Rain = 0
KME1 090850Z 21003KT 04/04 A3029 RMK A01 T00390039  RH  100%=      5-min Rain = 0
KME1 090851Z 20003KT 04/04 A3029 RMK A01 T00390039  RH  100%=      5-min Rain = 0
KME1 090852Z 20003KT 04/04 A3029 RMK A01 T00390039  RH  100%=      5-min Rain = 0
KME1 090853Z 21003KT 04/04 A3029 RMK A01 T00390039  RH  100%=      5-min Rain = 0
KME1 090854Z 22003KT 04/04 A3029 RMK A01 T00400040  RH  100%=      5-min Rain = 0
KME1 090855Z 23002KT 04/04 A3029 RMK A01 T00390039  RH  100%=      5-min Rain = 0
KME1 090856Z 23002KT 04/04 A3029 RMK A01 T00390039  RH  100%=      5-min Rain = 0
KME1 090857Z 21002KT 04/04 A3029 RMK A01 T00390039  RH  100%=      5-min Rain = 0
KME1 090858Z 20002KT 04/04 A3029 RMK A01 T00380038  RH  100%=      5-min Rain = 0
KME1 090859Z 20002KT 04/04 A3029 RMK A01 T00380038  RH  100%=      5-min Rain = 0
KME1 090900Z 20001KT 04/04 A3029 RMK A01 T00380038  RH  100%=      5-min Rain = 0
KME1 090901Z 22001KT 04/04 A3029 RMK A01 T00370037  RH  100%=      5-min Rain = 0
KME1 090902Z 23002KT 04/04 A3029 RMK A01 T00370037  RH  100%=      5-min Rain = 0
KME1 090903Z 23002KT 04/04 A3029 RMK A01 T00380037  RH  100%=      5-min Rain = 0
KME1 090904Z 22002KT 04/04 A3029 RMK A01 T00370037  RH  100%=      5-min Rain = 0
KME1 090905Z 21002KT 04/04 A3029 RMK A01 T00360036  RH  100%=      5-min Rain = 0
KME1 090906Z 20002KT 04/04 A3029 RMK A01 T00360036  RH  100%=      5-min Rain = 0
KME1 090907Z 20002KT 04/04 A3029 RMK A01 T00360036  RH  100%=      5-min Rain = 0
KME1 090908Z 20002KT 04/04 A3029 RMK A01 T00360036  RH  100%=      5-min Rain = 0
KME1 090909Z 21002KT 04/04 A3029 RMK A01 T00360036  RH  100%=      5-min Rain = 0
KME1 090910Z 22002KT 04/04 A3029 RMK A01 T00360036  RH  100%=      5-min Rain = 0
KME1 090911Z 22003KT 04/04 A3029 RMK A01 T00360036  RH  100%=      5-min Rain = 0
KME1 090912Z 22002KT 04/04 A3029 RMK A01 T00360036  RH  100%=      5-min Rain = 0
KME1 090913Z 21002KT 04/04 A3029 RMK A01 T00360036  RH  100%=      5-min Rain = 0
KME1 090914Z 21002KT 04/04 A3029 RMK A01 T00370037  RH  100%=      5-min Rain = 0
KME1 090915Z 21002KT 04/04 A3029 RMK A01 T00370037  RH  100%=      5-min Rain = 0
KME1 090916Z 21002KT 04/04 A3029 RMK A01 T00380038  RH  100%=      5-min Rain = 0
KME1 090917Z 21002KT 04/04 A3029 RMK A01 T00380038  RH  100%=      5-min Rain = 0
KME1 090918Z 21002KT 04/04 A3029 RMK A01 T00380038  RH  100%=      5-min Rain = 0
KME1 090919Z 21002KT 04/04 A3029 RMK A01 T00380038  RH  100%=      5-min Rain = 0
KME1 090920Z 21002KT 04/04 A3029 RMK A01 T00390039  RH  100%=      5-min Rain = 0
KME1 090921Z 21003KT 04/04 A3029 RMK A01 T00390039  RH  100%=      5-min Rain = 0
KME1 090922Z 21003KT 04/04 A3029 RMK A01 T00400040  RH  100%=      5-min Rain = 0
KME1 090923Z 20003KT 04/04 A3029 RMK A01 T00390039  RH  100%=      5-min Rain = 0
KME1 090924Z 20003KT 04/04 A3029 RMK A01 T00400040  RH  100%=      5-min Rain = 0
KME1 090925Z 19003KT 04/04 A3029 RMK A01 T00400040  RH  100%=      5-min Rain = 0
KME1 090926Z 19003KT 04/04 A3029 RMK A01 T00400040  RH  100%=      5-min Rain = 0
KME1 090927Z 20003KT 04/04 A3029 RMK A01 T00400040  RH  100%=      5-min Rain = 0
KME1 090928Z 20003KT 04/04 A3029 RMK A01 T00400040  RH  100%=      5-min Rain = 0
KME1 090929Z 21003KT 04/04 A3028 RMK A01 T00400040  RH  100%=      5-min Rain = 0
KME1 090930Z 21003KT 04/04 A3028 RMK A01 T00400040  RH  100%=      5-min Rain = 0
KME1 090931Z 21003KT 04/04 A3028 RMK A01 T00400040  RH  100%=      5-min Rain = 0
KME1 090932Z 21003KT 04/04 A3028 RMK A01 T00400040  RH  100%=      5-min Rain = 0
KME1 090933Z 21003KT 04/04 A3028 RMK A01 T00410041  RH  100%=      5-min Rain = 0
KME1 090934Z 21003KT 04/04 A3028 RMK A01 T00410041  RH  100%=      5-min Rain = 0
KME1 090935Z 21002KT 04/04 A3028 RMK A01 T00410041  RH  100%=      5-min Rain = 0
KME1 090936Z 23002KT 04/04 A3028 RMK A01 T00410041  RH  100%=      5-min Rain = 0
KME1 090937Z 23002KT 04/04 A3028 RMK A01 T00410041  RH  100%=      5-min Rain = 0
KME1 090938Z 22003KT 04/04 A3028 RMK A01 T00410041  RH  100%=      5-min Rain = 0
KME1 090939Z 21003KT 04/04 A3028 RMK A01 T00410041  RH  100%=      5-min Rain = 0
KME1 090940Z 21003KT 04/04 A3028 RMK A01 T00410041  RH  100%=      5-min Rain = 0
KME1 090941Z 21003KT 04/04 A3028 RMK A01 T00410041  RH  100%=      5-min Rain = 0
KME1 090942Z 20003KT 04/04 A3028 RMK A01 T00420042  RH  100%=      5-min Rain = 0
KME1 090943Z 20003KT 04/04 A3028 RMK A01 T00420042  RH  100%=      5-min Rain = 0
KME1 090944Z 20003KT 04/04 A3028 RMK A01 T00420042  RH  100%=      5-min Rain = 0
KME1 090945Z 21003KT 04/04 A3028 RMK A01 T00430043  RH  100%=      5-min Rain = 0
KME1 090946Z 21003KT 04/04 A3028 RMK A01 T00430043  RH  100%=      5-min Rain = 0
KME1 090947Z 22003KT 04/04 A3028 RMK A01 T00440044  RH  100%=      5-min Rain = 0
KME1 090948Z 22003KT 04/04 A3028 RMK A01 T00440044  RH  100%=      5-min Rain = 0
KME1 090949Z 22003KT 05/05 A3028 RMK A01 T00450045  RH  100%=      5-min Rain = 0
KME1 090950Z 22002KT 05/05 A3028 RMK A01 T00460046  RH  100%=      5-min Rain = 0
KME1 090951Z 21002KT 05/05 A3028 RMK A01 T00460046  RH  100%=      5-min Rain = 0
KME1 090952Z 21002KT 05/05 A3028 RMK A01 T00470047  RH  100%=      5-min Rain = 0
KME1 090953Z 21002KT 05/05 A3028 RMK A01 T00470047  RH  100%=      5-min Rain = 0
KME1 090954Z 22001KT 05/05 A3028 RMK A01 T00480048  RH  100%=      5-min Rain = 0
KME1 090955Z 23001KT 05/05 A3028 RMK A01 T00480048  RH  100%=      5-min Rain = 0
KME1 090956Z 23001KT 05/05 A3028 RMK A01 T00480048  RH  100%=      5-min Rain = 0
KME1 090957Z 22001KT 05/05 A3028 RMK A01 T00490049  RH  100%=      5-min Rain = 0
KME1 090958Z 22001KT 05/05 A3028 RMK A01 T00490049  RH  100%=      5-min Rain = 0
KME1 090959Z 21001KT 05/05 A3028 RMK A01 T00490049  RH  100%=      5-min Rain = 0
KME1 091000Z 19001KT 05/05 A3028 RMK A01 T00500050  RH  100%=      5-min Rain = 0
KME1 091001Z 18001KT 05/05 A3028 RMK A01 T00500050  RH  100%=      5-min Rain = 0
KME1 091002Z 18000KT 05/05 A3028 RMK A01 T00500050  RH  100%=      5-min Rain = 0
KME1 091003Z 00000KT 05/05 A3028 RMK A01 T00500050  RH  100%=      5-min Rain = 0
KME1 091004Z 00000KT 05/05 A3028 RMK A01 T00500050  RH  100%=      5-min Rain = 0
KME1 091005Z 00000KT 05/05 A3028 RMK A01 T00510051  RH  100%=      5-min Rain = 0
KME1 091006Z 24000KT 05/05 A3028 RMK A01 T00510051  RH  100%=      5-min Rain = 0
KME1 091007Z 21001KT 05/05 A3028 RMK A01 T00520052  RH  100%=      5-min Rain = 0
KME1 091008Z 20000KT 05/05 A3028 RMK A01 T00520052  RH  100%=      5-min Rain = 0
KME1 091009Z 19000KT 05/05 A3028 RMK A01 T00520052  RH  100%=      5-min Rain = 0
KME1 091010Z 21001KT 05/05 A3028 RMK A01 T00520052  RH  100%=      5-min Rain = 0
KME1 091011Z 21001KT 05/05 A3028 RMK A01 T00530053  RH  100%=      5-min Rain = 0
KME1 091012Z 22002KT 05/05 A3028 RMK A01 T00530053  RH  100%=      5-min Rain = 0
KME1 091013Z 23002KT 05/05 A3028 RMK A01 T00520052  RH  100%=      5-min Rain = 0
KME1 091014Z 22002KT 05/05 A3028 RMK A01 T00520052  RH  100%=      5-min Rain = 0
KME1 091015Z 22002KT 05/05 A3028 RMK A01 T00520052  RH  100%=      5-min Rain = 0
KME1 091016Z 23002KT 05/05 A3028 RMK A01 T00530053  RH  100%=      5-min Rain = 0
KME1 091017Z 23002KT 05/05 A3028 RMK A01 T00530053  RH  100%=      5-min Rain = 0
KME1 091018Z 23002KT 05/05 A3028 RMK A01 T00530053  RH  100%=      5-min Rain = 0
KME1 091019Z 24002KT 05/05 A3029 RMK A01 T00540054  RH  100%=      5-min Rain = 0
KME1 091020Z 23002KT 05/05 A3029 RMK A01 T00540054  RH  100%=      5-min Rain = 0
KME1 091021Z 23002KT 05/05 A3029 RMK A01 T00540054  RH  100%=      5-min Rain = 0
KME1 091022Z 23002KT 06/06 A3029 RMK A01 T00550055  RH  100%=      5-min Rain = 0
KME1 091023Z 22002KT 06/06 A3029 RMK A01 T00550055  RH  100%=      5-min Rain = 0
KME1 091024Z 22002KT 06/06 A3029 RMK A01 T00550055  RH  100%=      5-min Rain = 0
KME1 091025Z 23001KT 06/06 A3029 RMK A01 T00550055  RH  100%=      5-min Rain = 0
KME1 091026Z 24001KT 06/06 A3029 RMK A01 T00550055  RH  100%=      5-min Rain = 0
KME1 091027Z 23001KT 06/06 A3029 RMK A01 T00550055  RH  100%=      5-min Rain = 0
KME1 091028Z 22001KT 06/06 A3029 RMK A01 T00560056  RH  100%=      5-min Rain = 0
KME1 091029Z 22001KT 06/06 A3029 RMK A01 T00560056  RH  100%=      5-min Rain = 0
KME1 091030Z 21001KT 06/06 A3029 RMK A01 T00560056  RH  100%=      5-min Rain = 0
KME1 091031Z 22001KT 06/06 A3029 RMK A01 T00570057  RH  100%=      5-min Rain = 0
KME1 091032Z 23002KT 06/06 A3029 RMK A01 T00570057  RH  100%=      5-min Rain = 0
KME1 091033Z 25001KT 06/06 A3029 RMK A01 T00570057  RH  100%=      5-min Rain = 0
KME1 091034Z 21001KT 06/06 A3029 RMK A01 T00560056  RH  100%=      5-min Rain = 0
KME1 091035Z 20001KT 06/06 A3029 RMK A01 T00570057  RH  100%=      5-min Rain = 0
KME1 091036Z 21002KT 06/06 A3029 RMK A01 T00570057  RH  100%=      5-min Rain = 0
KME1 091037Z 20002KT 06/06 A3029 RMK A01 T00570057  RH  100%=      5-min Rain = 0
KME1 091038Z 20002KT 06/06 A3029 RMK A01 T00570057  RH  100%=      5-min Rain = 0
KME1 091039Z 21001KT 06/06 A3029 RMK A01 T00570057  RH  100%=      5-min Rain = 0
KME1 091040Z 22002KT 06/06 A3029 RMK A01 T00570057  RH  100%=      5-min Rain = 0
KME1 091041Z 21002KT 06/06 A3029 RMK A01 T00570057  RH  100%=      5-min Rain = 0
KME1 091042Z 21002KT 06/06 A3029 RMK A01 T00570057  RH  100%=      5-min Rain = 0
KME1 091043Z 21002KT 06/06 A3029 RMK A01 T00580058  RH  100%=      5-min Rain = 0
KME1 091044Z 21002KT 06/06 A3029 RMK A01 T00580058  RH  100%=      5-min Rain = 0
KME1 091045Z 21002KT 06/06 A3029 RMK A01 T00580058  RH  100%=      5-min Rain = 0
KME1 091046Z 20002KT 06/06 A3028 RMK A01 T00580058  RH  100%=      5-min Rain = 0
KME1 091047Z 21002KT 06/06 A3028 RMK A01 T00580058  RH  100%=      5-min Rain = 0
KME1 091048Z 21002KT 06/06 A3028 RMK A01 T00590059  RH  100%=      5-min Rain = 0
KME1 091049Z 21002KT 06/06 A3028 RMK A01 T00590059  RH  100%=      5-min Rain = 0
KME1 091050Z 21002KT 06/06 A3028 RMK A01 T00590059  RH  100%=      5-min Rain = 0
KME1 091051Z 21002KT 06/06 A3028 RMK A01 T00590059  RH  100%=      5-min Rain = 0
KME1 091052Z 21002KT 06/06 A3028 RMK A01 T00590059  RH  100%=      5-min Rain = 0
KME1 091053Z 21002KT 06/06 A3028 RMK A01 T00600060  RH  100%=      5-min Rain = 0
KME1 091054Z 21002KT 06/06 A3028 RMK A01 T00600060  RH  100%=      5-min Rain = 0
KME1 091055Z 21002KT 06/06 A3028 RMK A01 T00600060  RH  100%=      5-min Rain = 0
KME1 091056Z 21002KT 06/06 A3028 RMK A01 T00600060  RH  100%=      5-min Rain = 0
KME1 091057Z 21002KT 06/06 A3028 RMK A01 T00610061  RH  100%=      5-min Rain = 0
KME1 091058Z 21002KT 06/06 A3028 RMK A01 T00610061  RH  100%=      5-min Rain = 0
KME1 091059Z 21002KT 06/06 A3028 RMK A01 T00620062  RH  100%=      5-min Rain = 0
KME1 091100Z 22002KT 06/06 A3028 RMK A01 T00620062  RH  100%=      5-min Rain = 0
KME1 091101Z 24001KT 06/06 A3028 RMK A01 T00610062  RH  100%=      5-min Rain = 0
KME1 091102Z 24001KT 06/06 A3028 RMK A01 T00620062  RH  100%=      5-min Rain = 0
KME1 091103Z 22002KT 06/06 A3028 RMK A01 T00620062  RH  100%=      5-min Rain = 0
KME1 091104Z 21002KT 06/06 A3028 RMK A01 T00620062  RH  100%=      5-min Rain = 0
KME1 091105Z 21002KT 06/06 A3028 RMK A01 T00620062  RH  100%=      5-min Rain = 0
KME1 091106Z 21002KT 06/06 A3028 RMK A01 T00620062  RH  100%=      5-min Rain = 0
KME1 091107Z 20002KT 06/06 A3028 RMK A01 T00620062  RH  100%=      5-min Rain = 0
KME1 091108Z 21002KT 06/06 A3028 RMK A01 T00620062  RH  100%=      5-min Rain = 0
KME1 091109Z 20002KT 06/06 A3028 RMK A01 T00620062  RH  100%=      5-min Rain = 0
KME1 091110Z 20003KT 06/06 A3028 RMK A01 T00620062  RH  100%=      5-min Rain = 0
KME1 091111Z 21002KT 06/06 A3028 RMK A01 T00630063  RH  100%=      5-min Rain = 0
KME1 091112Z 21003KT 06/06 A3028 RMK A01 T00630063  RH  100%=      5-min Rain = 0
KME1 091113Z 21003KT 06/06 A3028 RMK A01 T00630063  RH  100%=      5-min Rain = 0
KME1 091114Z 20003KT 06/06 A3028 RMK A01 T00630063  RH  100%=      5-min Rain = 0
KME1 091115Z 21003KT 06/06 A3028 RMK A01 T00640064  RH  100%=      5-min Rain = 0
KME1 091116Z 21003KT 06/06 A3028 RMK A01 T00640064  RH  100%=      5-min Rain = 0
KME1 091117Z 20002KT 06/06 A3028 RMK A01 T00640064  RH  100%=      5-min Rain = 0
KME1 091118Z 21003KT 06/06 A3028 RMK A01 T00640064  RH  100%=      5-min Rain = 0
KME1 091119Z 21003KT 06/06 A3028 RMK A01 T00640064  RH  100%=      5-min Rain = 0
KME1 091120Z 21003KT 06/06 A3028 RMK A01 T00640064  RH  100%=      5-min Rain = 0
KME1 091121Z 21003KT 06/06 A3028 RMK A01 T00640064  RH  100%=      5-min Rain = 0
KME1 091122Z 21003KT 07/07 A3028 RMK A01 T00650065  RH  100%=      5-min Rain = 0
KME1 091123Z 20003KT 07/07 A3028 RMK A01 T00650065  RH  100%=      5-min Rain = 0
KME1 091124Z 20002KT 07/07 A3028 RMK A01 T00650065  RH  100%=      5-min Rain = 0
KME1 091125Z 19002KT 07/07 A3028 RMK A01 T00650065  RH  100%=      5-min Rain = 0
KME1 091126Z 20003KT 07/07 A3028 RMK A01 T00650065  RH  100%=      5-min Rain = 0
KME1 091127Z 20002KT 07/07 A3028 RMK A01 T00650065  RH  100%=      5-min Rain = 0
KME1 091128Z 22002KT 07/07 A3028 RMK A01 T00650065  RH  100%=      5-min Rain = 0
KME1 091129Z 22002KT 07/07 A3028 RMK A01 T00660066  RH  100%=      5-min Rain = 0
KME1 091130Z 23001KT 07/07 A3028 RMK A01 T00660066  RH  100%=      5-min Rain = 0
KME1 091131Z 19002KT 07/07 A3028 RMK A01 T00660066  RH  100%=      5-min Rain = 0
KME1 091132Z 19002KT 07/07 A3028 RMK A01 T00660066  RH  100%=      5-min Rain = 0
KME1 091133Z 19001KT 07/07 A3028 RMK A01 T00660066  RH  100%=      5-min Rain = 0
KME1 091134Z 21002KT 07/07 A3028 RMK A01 T00670067  RH  100%=      5-min Rain = 0
KME1 091135Z 21002KT 07/07 A3028 RMK A01 T00670067  RH  100%=      5-min Rain = 0
KME1 091136Z 22002KT 07/07 A3028 RMK A01 T00670067  RH  100%=      5-min Rain = 0
KME1 091137Z 21002KT 07/07 A3028 RMK A01 T00670067  RH  100%=      5-min Rain = 0
KME1 091138Z 20002KT 07/07 A3028 RMK A01 T00670067  RH  100%=      5-min Rain = 0
KME1 091139Z 20002KT 07/07 A3028 RMK A01 T00670067  RH  100%=      5-min Rain = 0
KME1 091140Z 20002KT 07/07 A3028 RMK A01 T00670067  RH  100%=      5-min Rain = 0
KME1 091141Z 20002KT 07/07 A3028 RMK A01 T00680068  RH  100%=      5-min Rain = 0
KME1 091142Z 20002KT 07/07 A3028 RMK A01 T00680068  RH  100%=      5-min Rain = 0
KME1 091143Z 21002KT 07/07 A3028 RMK A01 T00680068  RH  100%=      5-min Rain = 0
KME1 091144Z 22002KT 07/07 A3028 RMK A01 T00680068  RH  100%=      5-min Rain = 0
KME1 091145Z 22002KT 07/07 A3028 RMK A01 T00680068  RH  100%=      5-min Rain = 0
KME1 091146Z 22002KT 07/07 A3028 RMK A01 T00690069  RH  100%=      5-min Rain = 0
KME1 091147Z 22002KT 07/07 A3028 RMK A01 T00690069  RH  100%=      5-min Rain = 0
KME1 091148Z 22002KT 07/07 A3028 RMK A01 T00690069  RH  100%=      5-min Rain = 0
KME1 091149Z 22002KT 07/07 A3028 RMK A01 T00690069  RH  100%=      5-min Rain = 0
KME1 091150Z 23002KT 07/07 A3028 RMK A01 T00690069  RH  100%=      5-min Rain = 0
KME1 091151Z 24002KT 07/07 A3028 RMK A01 T00700070  RH  100%=      5-min Rain = 0
KME1 091152Z 24002KT 07/07 A3028 RMK A01 T00700070  RH  100%=      5-min Rain = 0
KME1 091153Z 24002KT 07/07 A3028 RMK A01 T00700070  RH  100%=      5-min Rain = 0
KME1 091154Z 25002KT 07/07 A3028 RMK A01 T00700070  RH  100%=      5-min Rain = 0
KME1 091155Z 26002KT 07/07 A3028 RMK A01 T00710071  RH  100%=      5-min Rain = 0
KME1 091156Z 24002KT 07/07 A3028 RMK A01 T00700070  RH  100%=      5-min Rain = 0
KME1 091157Z 23001KT 07/07 A3028 RMK A01 T00700070  RH  100%=      5-min Rain = 0
KME1 091158Z 22001KT 07/07 A3028 RMK A01 T00700070  RH  100%=      5-min Rain = 0
KME1 091159Z 18001KT 07/07 A3028 RMK A01 T00710071  RH  100%=      5-min Rain = 0
KME1 091200Z 18001KT 07/07 A3028 RMK A01 T00710071  RH  100%=      5-min Rain = 0
KME1 091201Z 19001KT 07/07 A3028 RMK A01 T00710071  RH  100%=      5-min Rain = 0
KME1 091202Z 20001KT 07/07 A3028 RMK A01 T00710071  RH  100%=      5-min Rain = 0
KME1 091203Z 19001KT 07/07 A3028 RMK A01 T00710071  RH  100%=      5-min Rain = 0
KME1 091204Z 19001KT 07/07 A3028 RMK A01 T00710071  RH  100%=      5-min Rain = 0
KME1 091205Z 20001KT 07/07 A3028 RMK A01 T00710071  RH  100%=      5-min Rain = 0
KME1 091206Z 21000KT 07/07 A3028 RMK A01 T00710071  RH  100%=      5-min Rain = 0
KME1 091207Z 22000KT 07/07 A3028 RMK A01 T00720072  RH  100%=      5-min Rain = 0
KME1 091208Z 23001KT 07/07 A3028 RMK A01 T00710071  RH  100%=      5-min Rain = 0
KME1 091209Z 25001KT 07/07 A3028 RMK A01 T00720072  RH  100%=      5-min Rain = 0
KME1 091210Z 25000KT 07/07 A3028 RMK A01 T00720072  RH  100%=      5-min Rain = 0
KME1 091211Z 00000KT 07/07 A3028 RMK A01 T00720072  RH  100%=      5-min Rain = 0
KME1 091212Z 16000KT 07/07 A3029 RMK A01 T00720072  RH  100%=      5-min Rain = 0
KME1 091213Z 17000KT 07/07 A3029 RMK A01 T00720072  RH  100%=      5-min Rain = 0
KME1 091214Z 00000KT 07/07 A3029 RMK A01 T00730073  RH  100%=      5-min Rain = 0
KME1 091215Z 00000KT 07/07 A3029 RMK A01 T00730073  RH  100%=      5-min Rain = 0
KME1 091216Z 00000KT 07/07 A3029 RMK A01 T00730073  RH  100%=      5-min Rain = 0
KME1 091217Z 00000KT 07/07 A3029 RMK A01 T00730073  RH  100%=      5-min Rain = 0
KME1 091218Z 00000KT 07/07 A3029 RMK A01 T00730073  RH  100%=      5-min Rain = 0
KME1 091219Z 00000KT 07/07 A3029 RMK A01 T00730073  RH  100%=      5-min Rain = 0
KME1 091220Z 00000KT 07/07 A3029 RMK A01 T00730073  RH  100%=      5-min Rain = 0
KME1 091221Z 19000KT 07/07 A3028 RMK A01 T00730073  RH  100%=      5-min Rain = 0
KME1 091222Z 35001KT 07/07 A3028 RMK A01 T00730073  RH  100%=      5-min Rain = 0
KME1 091223Z 35000KT 07/07 A3028 RMK A01 T00740074  RH  100%=      5-min Rain = 0
KME1 091224Z 00000KT 07/07 A3028 RMK A01 T00740074  RH  100%=      5-min Rain = 0
KME1 091225Z 02001KT 07/07 A3028 RMK A01 T00740074  RH  100%=      5-min Rain = 0
KME1 091226Z 03001KT 07/07 A3028 RMK A01 T00740074  RH  100%=      5-min Rain = 0
KME1 091227Z 02001KT 07/07 A3028 RMK A01 T00740074  RH  100%=      5-min Rain = 0
KME1 091228Z 02000KT 07/07 A3028 RMK A01 T00740074  RH  100%=      5-min Rain = 0
KME1 091229Z 00000KT 07/07 A3028 RMK A01 T00740074  RH  100%=      5-min Rain = 0
KME1 091230Z 00000KT 08/08 A3029 RMK A01 T00750075  RH  100%=      5-min Rain = 0
KME1 091231Z 00000KT 07/07 A3029 RMK A01 T00740074  RH  100%=      5-min Rain = 0
KME1 091232Z 00000KT 07/07 A3028 RMK A01 T00740074  RH  100%=      5-min Rain = 0
KME1 091233Z 00000KT 07/07 A3028 RMK A01 T00740074  RH  100%=      5-min Rain = 0
KME1 091234Z 00000KT 07/08 A3028 RMK A01 T00740075  RH  100%=      5-min Rain = 0
KME1 091235Z 00000KT 08/08 A3028 RMK A01 T00750075  RH  100%=      5-min Rain = 0
KME1 091236Z 00000KT 08/08 A3028 RMK A01 T00750075  RH  100%=      5-min Rain = 0
KME1 091237Z 00000KT 07/08 A3028 RMK A01 T00740075  RH  100%=      5-min Rain = 0
KME1 091238Z 00000KT 08/08 A3029 RMK A01 T00750075  RH  100%=      5-min Rain = 0
KME1 091239Z 31000KT 08/08 A3029 RMK A01 T00750075  RH  100%=      5-min Rain = 0
KME1 091240Z 31001KT 08/08 A3028 RMK A01 T00750075  RH  100%=      5-min Rain = 0
KME1 091241Z 30001KT 08/08 A3029 RMK A01 T00750075  RH  100%=      5-min Rain = 0
KME1 091242Z 31001KT 07/08 A3029 RMK A01 T00740075  RH  100%=      5-min Rain = 0
KME1 091243Z 30001KT 08/08 A3029 RMK A01 T00750075  RH  100%=      5-min Rain = 0
KME1 091244Z 27001KT 08/08 A3029 RMK A01 T00750075  RH  100%=      5-min Rain = 0
KME1 091245Z 31001KT 08/08 A3029 RMK A01 T00750075  RH  100%=      5-min Rain = 0
KME1 091246Z 34002KT 08/08 A3029 RMK A01 T00760076  RH  100%=      5-min Rain = 0
KME1 091247Z 34002KT 08/08 A3029 RMK A01 T00760076  RH  100%=      5-min Rain = 0
KME1 091248Z 33001KT 08/08 A3029 RMK A01 T00770077  RH  100%=      5-min Rain = 0
KME1 091249Z 35001KT 08/08 A3029 RMK A01 T00770077  RH  100%=      5-min Rain = 0
KME1 091250Z 36002KT 08/08 A3029 RMK A01 T00770077  RH  100%=      5-min Rain = 0
KME1 091251Z 34001KT 08/08 A3029 RMK A01 T00770077  RH  100%=      5-min Rain = 0
KME1 091252Z 00000KT 08/08 A3029 RMK A01 T00770077  RH  100%=      5-min Rain = 0
KME1 091253Z 33000KT 08/08 A3029 RMK A01 T00770077  RH  100%=      5-min Rain = 0
KME1 091254Z 33001KT 08/08 A3029 RMK A01 T00780078  RH  100%=      5-min Rain = 0
KME1 091255Z 31001KT 08/08 A3029 RMK A01 T00780078  RH  100%=      5-min Rain = 0
KME1 091256Z 18004KT 08/08 A3029 RMK A01 T00780078  RH  100%=      5-min Rain = 0
KME1 091257Z 18005KT 08/08 A303 RMK A01 T00780078  RH  100%=      5-min Rain = 0
KME1 091258Z 20002KT 08/08 A3029 RMK A01 T00790079  RH  100%=      5-min Rain = 0
KME1 091259Z 22002KT 08/08 A3029 RMK A01 T00790079  RH  100%=      5-min Rain = 0
KME1 091300Z 20003KT 08/08 A3029 RMK A01 T00790079  RH  100%=      5-min Rain = 0
KME1 091301Z 20004KT 08/08 A303 RMK A01 T00790079  RH  100%=      5-min Rain = 0
KME1 091302Z 21002KT 08/08 A3029 RMK A01 T00790079  RH  100%=      5-min Rain = 0
KME1 091303Z 22002KT 08/08 A3029 RMK A01 T00790079  RH  100%=      5-min Rain = 0
KME1 091304Z 18002KT 08/08 A303 RMK A01 T00790079  RH  100%=      5-min Rain = 0
KME1 091305Z 17002KT 08/08 A303 RMK A01 T00790079  RH  100%=      5-min Rain = 0
KME1 091306Z 19001KT 08/08 A3029 RMK A01 T00790079  RH  100%=      5-min Rain = 0
KME1 091307Z 18001KT 08/08 A3029 RMK A01 T00790079  RH  100%=      5-min Rain = 0
KME1 091308Z 18002KT 08/08 A303 RMK A01 T00790079  RH  100%=      5-min Rain = 0
KME1 091309Z 19001KT 08/08 A303 RMK A01 T00790079  RH  100%=      5-min Rain = 0
KME1 091310Z 28000KT 08/08 A3029 RMK A01 T00790079  RH  100%=      5-min Rain = 0
KME1 091311Z 27001KT 08/08 A3029 RMK A01 T00790080  RH  100%=      5-min Rain = 0
KME1 091312Z 21002KT 08/08 A303 RMK A01 T00800080  RH  100%=      5-min Rain = 0
KME1 091313Z 19002KT 08/08 A303 RMK A01 T00800080  RH  100%=      5-min Rain = 0
KME1 091314Z 18002KT 08/08 A303 RMK A01 T00800080  RH  100%=      5-min Rain = 0
KME1 091315Z 18001KT 08/08 A3029 RMK A01 T00800080  RH  100%=      5-min Rain = 0
KME1 091316Z 18001KT 08/08 A3029 RMK A01 T00810081  RH  100%=      5-min Rain = 0
KME1 091317Z 20002KT 08/08 A3029 RMK A01 T00800081  RH  100%=      5-min Rain = 0
KME1 091318Z 21002KT 08/08 A3029 RMK A01 T00810081  RH  100%=      5-min Rain = 0
KME1 091319Z 22002KT 08/08 A3029 RMK A01 T00810081  RH  100%=      5-min Rain = 0
KME1 091320Z 21002KT 08/08 A3029 RMK A01 T00810081  RH  100%=      5-min Rain = 0
KME1 091321Z 19001KT 08/08 A3029 RMK A01 T00810081  RH  100%=      5-min Rain = 0
KME1 091322Z 17000KT 08/08 A3029 RMK A01 T00810081  RH  100%=      5-min Rain = 0
KME1 091323Z 21001KT 08/08 A3029 RMK A01 T00810081  RH  100%=      5-min Rain = 0
KME1 091324Z 18002KT 08/08 A3029 RMK A01 T00820082  RH  100%=      5-min Rain = 0
KME1 091325Z 18002KT 08/08 A3029 RMK A01 T00820082  RH  100%=      5-min Rain = 0
KME1 091326Z 20001KT 08/08 A3029 RMK A01 T00820082  RH  100%=      5-min Rain = 0
KME1 091327Z 23001KT 08/08 A3029 RMK A01 T00820082  RH  100%=      5-min Rain = 0
KME1 091328Z 23002KT 08/08 A303 RMK A01 T00820082  RH  100%=      5-min Rain = 0
KME1 091329Z 22001KT 08/08 A303 RMK A01 T00820082  RH  100%=      5-min Rain = 0
KME1 091330Z 21001KT 08/08 A303 RMK A01 T00820082  RH  100%=      5-min Rain = 0
KME1 091331Z 18001KT 08/08 A303 RMK A01 T00820083  RH  100%=      5-min Rain = 0
KME1 091332Z 19001KT 08/08 A303 RMK A01 T00830083  RH  100%=      5-min Rain = 0
KME1 091333Z 20001KT 08/08 A303 RMK A01 T00830083  RH  100%=      5-min Rain = 0
KME1 091334Z 20001KT 08/08 A303 RMK A01 T00830083  RH  100%=      5-min Rain = 0
KME1 091335Z 19001KT 08/08 A303 RMK A01 T00830083  RH  100%=      5-min Rain = 0
KME1 091336Z 20001KT 08/08 A303 RMK A01 T00830083  RH  100%=      5-min Rain = 0
KME1 091337Z 20001KT 08/08 A303 RMK A01 T00840084  RH  100%=      5-min Rain = 0
KME1 091338Z 21000KT 08/08 A303 RMK A01 T00840084  RH  100%=      5-min Rain = 0
KME1 091339Z 22001KT 08/08 A303 RMK A01 T00840084  RH  100%=      5-min Rain = 0
KME1 091340Z 21001KT 09/09 A303 RMK A01 T00850085  RH  100%=      5-min Rain = 0
KME1 091341Z 20001KT 09/09 A303 RMK A01 T00850085  RH  100%=      5-min Rain = 0
KME1 091342Z 19002KT 09/09 A303 RMK A01 T00850085  RH  100%=      5-min Rain = 0
KME1 091343Z 19003KT 09/09 A303 RMK A01 T00850085  RH  100%=      5-min Rain = 0
KME1 091344Z 19002KT 09/09 A303 RMK A01 T00850085  RH  100%=      5-min Rain = 0
KME1 091345Z 20002KT 09/09 A303 RMK A01 T00850085  RH  100%=      5-min Rain = 0
KME1 091346Z 20002KT 09/09 A303 RMK A01 T00850085  RH  100%=      5-min Rain = 0
KME1 091347Z 20002KT 09/09 A303 RMK A01 T00850085  RH  100%=      5-min Rain = 0
KME1 091348Z 19002KT 09/09 A303 RMK A01 T00860086  RH  100%=      5-min Rain = 0
KME1 091349Z 19001KT 09/09 A303 RMK A01 T00860086  RH  100%=      5-min Rain = 0
KME1 091350Z 18001KT 09/09 A303 RMK A01 T00860086  RH  100%=      5-min Rain = 0
KME1 091351Z 21001KT 09/09 A303 RMK A01 T00870087  RH  100%=      5-min Rain = 0
KME1 091352Z 21002KT 09/09 A303 RMK A01 T00870087  RH  100%=      5-min Rain = 0
KME1 091353Z 20001KT 09/09 A303 RMK A01 T00870087  RH  100%=      5-min Rain = 0
KME1 091354Z 21002KT 09/09 A303 RMK A01 T00870087  RH  100%=      5-min Rain = 0
KME1 091355Z 22001KT 09/09 A303 RMK A01 T00870087  RH  100%=      5-min Rain = 0
KME1 091356Z 21001KT 09/09 A303 RMK A01 T00870087  RH  100%=      5-min Rain = 0
KME1 091357Z 21000KT 09/09 A303 RMK A01 T00870087  RH  100%=      5-min Rain = 0
KME1 091358Z 00000KT 09/09 A303 RMK A01 T00880088  RH  100%=      5-min Rain = 0
KME1 091359Z 00000KT 09/09 A303 RMK A01 T00880088  RH  100%=      5-min Rain = 0
KME1 091400Z 00000KT 09/09 A303 RMK A01 T00880088  RH  100%=      5-min Rain = 0
KME1 091401Z 27000KT 09/09 A303 RMK A01 T00880088  RH  100%=      5-min Rain = 0
KME1 091402Z 00000KT 09/09 A303 RMK A01 T00880088  RH  100%=      5-min Rain = 0
KME1 091403Z 00000KT 09/09 A303 RMK A01 T00880088  RH  100%=      5-min Rain = 0
KME1 091404Z 19000KT 09/09 A303 RMK A01 T00880088  RH  100%=      5-min Rain = 0
KME1 091405Z 17001KT 09/09 A303 RMK A01 T00890089  RH  100%=      5-min Rain = 0
KME1 091406Z 16001KT 09/09 A3031 RMK A01 T00890089  RH  100%=      5-min Rain = 0
KME1 091407Z 16001KT 09/09 A3031 RMK A01 T00890089  RH  100%=      5-min Rain = 0
KME1 091408Z 17001KT 09/09 A3031 RMK A01 T00900090  RH  100%=      5-min Rain = 0
KME1 091409Z 18001KT 09/09 A3031 RMK A01 T00900090  RH  100%=      5-min Rain = 0
KME1 091410Z 20001KT 09/09 A3031 RMK A01 T00910091  RH  100%=      5-min Rain = 0
KME1 091411Z 19001KT 09/09 A303 RMK A01 T00900091  RH  100%=      5-min Rain = 0
KME1 091412Z 18001KT 09/09 A303 RMK A01 T00900091  RH  100%=      5-min Rain = 0
KME1 091413Z 19001KT 09/09 A303 RMK A01 T00900090  RH  100%=      5-min Rain = 0
KME1 091414Z 21001KT 09/09 A303 RMK A01 T00910091  RH  100%=      5-min Rain = 0
KME1 091415Z 21001KT 09/09 A303 RMK A01 T00910091  RH  100%=      5-min Rain = 0
KME1 091416Z 20001KT 09/09 A303 RMK A01 T00910091  RH  100%=      5-min Rain = 0
KME1 091417Z 18001KT 09/09 A303 RMK A01 T00920092  RH  100%=      5-min Rain = 0
KME1 091418Z 17001KT 09/09 A303 RMK A01 T00920092  RH  100%=      5-min Rain = 0
KME1 091419Z 17001KT 09/09 A303 RMK A01 T00920092  RH  100%=      5-min Rain = 0
KME1 091420Z 16001KT 09/09 A303 RMK A01 T00930093  RH  100%=      5-min Rain = 0
KME1 091421Z 15001KT 09/09 A303 RMK A01 T00930093  RH  100%=      5-min Rain = 0
KME1 091422Z 16002KT 09/09 A303 RMK A01 T00930093  RH  100%=      5-min Rain = 0
KME1 091423Z 17001KT 09/09 A303 RMK A01 T00940094  RH  100%=      5-min Rain = 0
KME1 091424Z 18001KT 09/09 A303 RMK A01 T00940094  RH  100%=      5-min Rain = 0
KME1 091425Z 17001KT 09/09 A303 RMK A01 T00940094  RH  100%=      5-min Rain = 0
KME1 091426Z 19001KT 09/09 A303 RMK A01 T00940094  RH  100%=      5-min Rain = 0
KME1 091427Z 20000KT 10/10 A303 RMK A01 T00950095  RH  100%=      5-min Rain = 0
KME1 091428Z 00000KT 10/10 A303 RMK A01 T00950095  RH  100%=      5-min Rain = 0
KME1 091429Z 00000KT 10/10 A3031 RMK A01 T00950095  RH  100%=      5-min Rain = 0
KME1 091430Z 00000KT 10/10 A3031 RMK A01 T00960096  RH  100%=      5-min Rain = 0
KME1 091431Z 24000KT 10/10 A3031 RMK A01 T00960096  RH  100%=      5-min Rain = 0
KME1 091432Z 24001KT 10/10 A3031 RMK A01 T00960096  RH  100%=      5-min Rain = 0
KME1 091433Z 23000KT 10/10 A3031 RMK A01 T00960096  RH  100%=      5-min Rain = 0
KME1 091434Z 13000KT 10/10 A3031 RMK A01 T00970097  RH  100%=      5-min Rain = 0
KME1 091435Z 13001KT 10/10 A3031 RMK A01 T00980098  RH  100%=      5-min Rain = 0
KME1 091436Z 13001KT 10/10 A3031 RMK A01 T00980098  RH  100%=      5-min Rain = 0
KME1 091437Z 12000KT 10/10 A3031 RMK A01 T00990099  RH  100%=      5-min Rain = 0
KME1 091438Z 07000KT 10/10 A3031 RMK A01 T00990099  RH  100%=      5-min Rain = 0
KME1 091439Z 09000KT 10/10 A3031 RMK A01 T00990099  RH  100%=      5-min Rain = 0
KME1 091440Z 00000KT 10/10 A3031 RMK A01 T00990099  RH  100%=      5-min Rain = 0
KME1 091441Z 00000KT 10/10 A3031 RMK A01 T00990099  RH  100%=      5-min Rain = 0
KME1 091442Z 08000KT 10/10 A3031 RMK A01 T00990099  RH  100%=      5-min Rain = 0
KME1 091443Z 00000KT 10/10 A3031 RMK A01 T00990099  RH  100%=      5-min Rain = 0
KME1 091444Z 12000KT 10/10 A3031 RMK A01 T00990099  RH  100%=      5-min Rain = 0
KME1 091445Z 12000KT 10/10 A3031 RMK A01 T01000099  RH  100%=      5-min Rain = 0
KME1 091446Z 14001KT 10/10 A3031 RMK A01 T01000099  RH  099%=      5-min Rain = 0
KME1 091447Z 13001KT 10/10 A3031 RMK A01 T01010100  RH  099%=      5-min Rain = 0
KME1 091448Z 09000KT 10/10 A3031 RMK A01 T01010099  RH  099%=      5-min Rain = 0
KME1 091449Z 08000KT 10/10 A3031 RMK A01 T01020098  RH  098%=      5-min Rain = 0
KME1 091450Z 07000KT 10/10 A3031 RMK A01 T01020097  RH  097%=      5-min Rain = 0
KME1 091451Z 03001KT 10/10 A3031 RMK A01 T01020099  RH  098%=      5-min Rain = 0
KME1 091452Z 02002KT 10/10 A3031 RMK A01 T01030101  RH  099%=      5-min Rain = 0
KME1 091453Z 01002KT 11/10 A3031 RMK A01 T01050104  RH  099%=      5-min Rain = 0
KME1 091454Z 01002KT 11/10 A3031 RMK A01 T01050103  RH  099%=      5-min Rain = 0
KME1 091455Z 01001KT 11/11 A3031 RMK A01 T01060105  RH  100%=      5-min Rain = 0
KME1 091456Z 03001KT 11/11 A3031 RMK A01 T01060105  RH  099%=      5-min Rain = 0
KME1 091457Z 03002KT 11/10 A3031 RMK A01 T01060103  RH  098%=      5-min Rain = 0
KME1 091458Z 04001KT 11/10 A3031 RMK A01 T01050101  RH  097%=      5-min Rain = 0
KME1 091459Z 04001KT 11/10 A3031 RMK A01 T01050101  RH  097%=      5-min Rain = 0
KME1 091500Z 05000KT 11/10 A3031 RMK A01 T01060102  RH  097%=      5-min Rain = 0
KME1 091501Z 01000KT 11/10 A303 RMK A01 T01060101  RH  097%=      5-min Rain = 0
KME1 091502Z 00001KT 11/10 A3031 RMK A01 T01060100  RH  096%=      5-min Rain = 0
KME1 091503Z 01001KT 11/10 A3031 RMK A01 T01060100  RH  096%=      5-min Rain = 0
KME1 091504Z 02001KT 11/10 A3031 RMK A01 T01070100  RH  096%=      5-min Rain = 0
KME1 091505Z 01001KT 11/10 A3031 RMK A01 T01080099  RH  095%=      5-min Rain = 0
KME1 091506Z 05001KT 11/10 A3031 RMK A01 T01080099  RH  094%=      5-min Rain = 0
KME1 091507Z 07001KT 11/10 A3031 RMK A01 T01080098  RH  094%=      5-min Rain = 0
KME1 091508Z 08001KT 11/10 A3031 RMK A01 T01090100  RH  094%=      5-min Rain = 0
KME1 091509Z 06001KT 11/10 A3031 RMK A01 T01100101  RH  094%=      5-min Rain = 0
KME1 091510Z 03000KT 11/10 A3031 RMK A01 T01110100  RH  093%=      5-min Rain = 0
KME1 091511Z 04001KT 11/10 A3031 RMK A01 T01110099  RH  092%=      5-min Rain = 0
KME1 091512Z 03001KT 11/10 A3031 RMK A01 T01110097  RH  091%=      5-min Rain = 0
KME1 091513Z 04000KT 11/10 A3031 RMK A01 T01110098  RH  091%=      5-min Rain = 0
KME1 091514Z 09001KT 11/10 A3031 RMK A01 T01120097  RH  090%=      5-min Rain = 0
KME1 091515Z 08000KT 11/10 A3031 RMK A01 T01130099  RH  091%=      5-min Rain = 0
KME1 091516Z 06001KT 12/10 A3031 RMK A01 T01150101  RH  091%=      5-min Rain = 0
KME1 091517Z 10000KT 12/10 A3031 RMK A01 T01150096  RH  088%=      5-min Rain = 0
KME1 091518Z 16001KT 12/10 A3031 RMK A01 T01150096  RH  088%=      5-min Rain = 0
KME1 091519Z 15001KT 12/10 A3031 RMK A01 T01160095  RH  087%=      5-min Rain = 0
KME1 091520Z 14000KT 12/10 A3031 RMK A01 T01160095  RH  087%=      5-min Rain = 0
KME1 091521Z 11000KT 12/10 A3031 RMK A01 T01170096  RH  087%=      5-min Rain = 0
KME1 091522Z 14001KT 12/10 A3031 RMK A01 T01190098  RH  087%=      5-min Rain = 0
KME1 091523Z 13001KT 12/10 A3031 RMK A01 T01210096  RH  085%=      5-min Rain = 0
KME1 091524Z 06000KT 12/09 A3031 RMK A01 T01210094  RH  083%=      5-min Rain = 0
KME1 091525Z 04000KT 12/09 A3031 RMK A01 T01210093  RH  083%=      5-min Rain = 0
KME1 091531Z 19001KT 13/09 A3031 RMK A01 T01290094  RH  080%=      5-min Rain = 0
KME1 091532Z 16002KT 13/10 A3031 RMK A01 T01290095  RH  080%=      5-min Rain = 0
KME1 091533Z 21002KT 13/10 A3031 RMK A01 T01300096  RH  080%=      5-min Rain = 0
KME1 091534Z 23002KT 13/10 A3031 RMK A01 T01300095  RH  079%=      5-min Rain = 0
KME1 091535Z 23001KT 13/10 A3031 RMK A01 T01300095  RH  079%=      5-min Rain = 0
KME1 091536Z 25001KT 13/10 A3031 RMK A01 T01290095  RH  080%=      5-min Rain = 0
KME1 091537Z 27000KT 13/10 A3031 RMK A01 T01290095  RH  080%=      5-min Rain = 0
KME1 091538Z 00000KT 13/10 A3031 RMK A01 T01290096  RH  080%=      5-min Rain = 0
KME1 091539Z 16001KT 13/10 A3031 RMK A01 T01310098  RH  081%=      5-min Rain = 0
KME1 091540Z 16001KT 13/10 A3031 RMK A01 T01320096  RH  079%=      5-min Rain = 0
KME1 091541Z 18002KT 13/10 A3031 RMK A01 T01330095  RH  078%=      5-min Rain = 0
KME1 091542Z 15002KT 13/10 A3031 RMK A01 T01330095  RH  078%=      5-min Rain = 0
KME1 091543Z 14000KT 13/10 A3031 RMK A01 T01330095  RH  078%=      5-min Rain = 0
KME1 091544Z 18001KT 13/10 A3031 RMK A01 T01330095  RH  078%=      5-min Rain = 0
KME1 091545Z 19002KT 13/09 A3031 RMK A01 T01330093  RH  077%=      5-min Rain = 0
KME1 091546Z 16001KT 13/09 A3031 RMK A01 T01330093  RH  077%=      5-min Rain = 0
KME1 091547Z 16002KT 13/10 A3031 RMK A01 T01340095  RH  077%=      5-min Rain = 0
KME1 091548Z 19001KT 14/10 A3031 RMK A01 T01350095  RH  077%=      5-min Rain = 0
KME1 091549Z 23000KT 14/09 A3031 RMK A01 T01360094  RH  076%=      5-min Rain = 0
KME1 091550Z 17001KT 14/10 A3031 RMK A01 T01370095  RH  076%=      5-min Rain = 0
KME1 091551Z 17001KT 14/10 A3031 RMK A01 T01370095  RH  075%=      5-min Rain = 0
KME1 091552Z 16000KT 14/10 A3031 RMK A01 T01380095  RH  075%=      5-min Rain = 0
KME1 091553Z 13002KT 14/10 A3031 RMK A01 T01400096  RH  075%=      5-min Rain = 0
KME1 091554Z 13002KT 14/10 A3031 RMK A01 T01410095  RH  074%=      5-min Rain = 0
KME1 091555Z 17003KT 14/10 A3031 RMK A01 T01410096  RH  074%=      5-min Rain = 0
KME1 091556Z 24003KT 14/10 A3031 RMK A01 T01410095  RH  074%=      5-min Rain = 0
KME1 091557Z 26003KT 14/10 A3031 RMK A01 T01410095  RH  074%=      5-min Rain = 0
KME1 091558Z 26002KT 14/09 A3031 RMK A01 T01410093  RH  073%=      5-min Rain = 0
KME1 091559Z 29001KT 14/10 A3031 RMK A01 T01410095  RH  074%=      5-min Rain = 0
KME1 091600Z 24002KT 14/09 A3031 RMK A01 T01420093  RH  073%=      5-min Rain = 0
KME1 091601Z 24001KT 14/09 A3031 RMK A01 T01420094  RH  073%=      5-min Rain = 0
KME1 091602Z 26002KT 15/10 A3031 RMK A01 T01450098  RH  074%=      5-min Rain = 0
KME1 091603Z 27002KT 15/10 A3031 RMK A01 T01480096  RH  071%=      5-min Rain = 0
KME1 091604Z 27002KT 15/10 A3031 RMK A01 T01500096  RH  070%=      5-min Rain = 0
KME1 091605Z 29003KT 15/10 A3031 RMK A01 T01510096  RH  070%=      5-min Rain = 0
KME1 091606Z 31003KT 15/09 A3031 RMK A01 T01510094  RH  069%=      5-min Rain = 0
KME1 091607Z 28002KT 15/09 A3031 RMK A01 T01510094  RH  069%=      5-min Rain = 0
KME1 091608Z 26003KT 15/09 A3031 RMK A01 T01510094  RH  069%=      5-min Rain = 0
KME1 091609Z 28001KT 15/10 A3031 RMK A01 T01500095  RH  069%=      5-min Rain = 0
KME1 091610Z 27001KT 15/10 A3031 RMK A01 T01510095  RH  069%=      5-min Rain = 0
KME1 091611Z 25003KT 15/10 A3031 RMK A01 T01530096  RH  069%=      5-min Rain = 0
KME1 091612Z 22004KT 15/10 A3031 RMK A01 T01530095  RH  068%=      5-min Rain = 0
KME1 091613Z 21003KT 15/09 A3031 RMK A01 T01530094  RH  068%=      5-min Rain = 0
KME1 091614Z 20001KT 15/09 A303 RMK A01 T01510093  RH  068%=      5-min Rain = 0
KME1 091615Z 21001KT 15/09 A303 RMK A01 T01500092  RH  068%=      5-min Rain = 0
KME1 091616Z 23003KT 15/10 A303 RMK A01 T01510095  RH  069%=      5-min Rain = 0
KME1 091617Z 23003KT 15/10 A303 RMK A01 T01540096  RH  068%=      5-min Rain = 0
KME1 091618Z 20003KT 16/10 A303 RMK A01 T01550096  RH  068%=      5-min Rain = 0
KME1 091619Z 21005KT 16/10 A303 RMK A01 T01560097  RH  068%=      5-min Rain = 0
KME1 091620Z 19005KT 16/10 A303 RMK A01 T01570096  RH  067%=      5-min Rain = 0
KME1 091621Z 20003KT 16/10 A303 RMK A01 T01570095  RH  067%=      5-min Rain = 0
KME1 091622Z 22003KT 16/10 A303 RMK A01 T01560095  RH  067%=      5-min Rain = 0
KME1 091623Z 21004KT 15/10 A303 RMK A01 T01540095  RH  068%=      5-min Rain = 0
KME1 091624Z 22005KT 15/10 A303 RMK A01 T01530097  RH  069%=      5-min Rain = 0
KME1 091625Z 20005KT 15/10 A303 RMK A01 T01530097  RH  069%=      5-min Rain = 0
KME1 091626Z 19004KT 16/10 A303 RMK A01 T01550099  RH  070%=      5-min Rain = 0
KME1 091627Z 17006KT 16/10 A303 RMK A01 T01560098  RH  068%=      5-min Rain = 0
KME1 091628Z 18004KT 16/10 A303 RMK A01 T01560097  RH  068%=      5-min Rain = 0
KME1 091629Z 18004KT 16/10 A303 RMK A01 T01550099  RH  069%=      5-min Rain = 0
KME1 091630Z 22006KT 16/10 A303 RMK A01 T01570099  RH  069%=      5-min Rain = 0
KME1 091631Z 24006KT 16/10 A303 RMK A01 T01570099  RH  068%=      5-min Rain = 0
KME1 091632Z 22005KT 16/10 A303 RMK A01 T01570100  RH  069%=      5-min Rain = 0
KME1 091633Z 20005KT 16/10 A303 RMK A01 T01570099  RH  068%=      5-min Rain = 0
KME1 091634Z 20005KT 16/10 A303 RMK A01 T01570099  RH  068%=      5-min Rain = 0
KME1 091635Z 21007KT 16/10 A303 RMK A01 T01580099  RH  068%=      5-min Rain = 0
KME1 091636Z 20007KT 16/10 A303 RMK A01 T01580099  RH  068%=      5-min Rain = 0
KME1 091637Z 20006KT 16/10 A303 RMK A01 T01570099  RH  068%=      5-min Rain = 0
KME1 091638Z 19006KT 16/10 A303 RMK A01 T01580099  RH  068%=      5-min Rain = 0
KME1 091639Z 20006KT 16/10 A303 RMK A01 T01580099  RH  068%=      5-min Rain = 0
KME1 091640Z 21003KT 16/10 A303 RMK A01 T01580098  RH  067%=      5-min Rain = 0
KME1 091641Z 22005KT 16/10 A303 RMK A01 T01570098  RH  068%=      5-min Rain = 0
KME1 091642Z 22007KT 16/10 A303 RMK A01 T01570099  RH  069%=      5-min Rain = 0
KME1 091643Z 22004KT 16/10 A303 RMK A01 T01580098  RH  067%=      5-min Rain = 0
KME1 091644Z 24005KT 16/10 A303 RMK A01 T01580099  RH  068%=      5-min Rain = 0
KME1 091645Z 24004KT 16/10 A303 RMK A01 T01580099  RH  068%=      5-min Rain = 0
KME1 091646Z 23003KT 16/10 A303 RMK A01 T01580099  RH  068%=      5-min Rain = 0
KME1 091647Z 22006KT 16/10 A303 RMK A01 T01590100  RH  068%=      5-min Rain = 0
KME1 091648Z 20005KT 16/10 A303 RMK A01 T01600099  RH  067%=      5-min Rain = 0
KME1 091649Z 21004KT 16/10 A303 RMK A01 T01600098  RH  067%=      5-min Rain = 0
KME1 091650Z 20005KT 16/10 A303 RMK A01 T01600098  RH  067%=      5-min Rain = 0
KME1 091651Z 23004KT 16/10 A3029 RMK A01 T01620103  RH  068%=      5-min Rain = 0
KME1 091652Z 23007KT 17/10 A303 RMK A01 T01650103  RH  067%=      5-min Rain = 0
KME1 091653Z 22004KT 17/10 A3029 RMK A01 T01670102  RH  066%=      5-min Rain = 0
KME1 091654Z 21004KT 17/10 A3029 RMK A01 T01680101  RH  065%=      5-min Rain = 0
KME1 091655Z 21006KT 17/10 A3029 RMK A01 T01680102  RH  065%=      5-min Rain = 0
KME1 091656Z 20005KT 17/10 A3029 RMK A01 T01690101  RH  064%=      5-min Rain = 0
KME1 091657Z 21005KT 17/10 A3029 RMK A01 T01680101  RH  064%=      5-min Rain = 0
KME1 091658Z 24006KT 17/10 A3029 RMK A01 T01680102  RH  065%=      5-min Rain = 0
KME1 091659Z 25006KT 17/10 A3029 RMK A01 T01680102  RH  065%=      5-min Rain = 0
KME1 091700Z 23006KT 17/10 A3029 RMK A01 T01680103  RH  065%=      5-min Rain = 0
KME1 091701Z 22005KT 17/10 A3029 RMK A01 T01700104  RH  065%=      5-min Rain = 0
KME1 091702Z 21007KT 17/10 A3029 RMK A01 T01720103  RH  064%=      5-min Rain = 0
KME1 091703Z 20005KT 17/10 A3029 RMK A01 T01710103  RH  064%=      5-min Rain = 0
KME1 091704Z 18005KT 17/10 A3029 RMK A01 T01710103  RH  064%=      5-min Rain = 0
KME1 091705Z 22005KT 17/10 A3029 RMK A01 T01710103  RH  064%=      5-min Rain = 0
KME1 091706Z 25006KT 17/10 A3029 RMK A01 T01720104  RH  064%=      5-min Rain = 0
KME1 091707Z 24007KT 17/10 A3029 RMK A01 T01720104  RH  064%=      5-min Rain = 0
KME1 091708Z 24005KT 17/10 A3029 RMK A01 T01720104  RH  064%=      5-min Rain = 0
KME1 091709Z 24005KT 17/11 A3029 RMK A01 T01720105  RH  065%=      5-min Rain = 0
KME1 091710Z 22005KT 17/10 A3029 RMK A01 T01720103  RH  064%=      5-min Rain = 0
KME1 091711Z 23004KT 17/10 A3029 RMK A01 T01720104  RH  064%=      5-min Rain = 0
KME1 091712Z 21005KT 17/11 A3029 RMK A01 T01730105  RH  064%=      5-min Rain = 0
KME1 091713Z 20006KT 18/10 A3029 RMK A01 T01750104  RH  063%=      5-min Rain = 0
KME1 091714Z 21005KT 18/10 A3029 RMK A01 T01760103  RH  062%=      5-min Rain = 0
KME1 091715Z 20007KT 18/10 A3029 RMK A01 T01750104  RH  063%=      5-min Rain = 0
KME1 091716Z 19007KT 18/10 A3029 RMK A01 T01750103  RH  063%=      5-min Rain = 0
KME1 091717Z 19007KT 18/10 A3028 RMK A01 T01750102  RH  062%=      5-min Rain = 0
KME1 091718Z 20006KT 18/10 A3029 RMK A01 T01750104  RH  063%=      5-min Rain = 0
KME1 091719Z 19006KT 17/10 A3029 RMK A01 T01740103  RH  063%=      5-min Rain = 0
KME1 091720Z 21005KT 17/10 A3029 RMK A01 T01730103  RH  063%=      5-min Rain = 0
KME1 091721Z 21007KT 17/10 A3029 RMK A01 T01740104  RH  063%=      5-min Rain = 0
KME1 091722Z 21006KT 17/10 A3029 RMK A01 T01740104  RH  064%=      5-min Rain = 0
KME1 091723Z 21004KT 18/10 A3029 RMK A01 T01750103  RH  063%=      5-min Rain = 0
KME1 091724Z 21005KT 18/10 A3028 RMK A01 T01750102  RH  063%=      5-min Rain = 0
KME1 091725Z 18008KT 17/10 A3028 RMK A01 T01740103  RH  063%=      5-min Rain = 0
KME1 091726Z 19010KT 17/10 A3028 RMK A01 T01740104  RH  063%=      5-min Rain = 0
KME1 091727Z 19007KT 18/10 A3028 RMK A01 T01750103  RH  063%=      5-min Rain = 0
KME1 091728Z 19004KT 17/10 A3028 RMK A01 T01740104  RH  063%=      5-min Rain = 0
KME1 091729Z 19008KT 17/10 A3028 RMK A01 T01740103  RH  063%=      5-min Rain = 0
KME1 091730Z 19010KT 17/10 A3028 RMK A01 T01720101  RH  063%=      5-min Rain = 0
KME1 091731Z 20008KT 17/10 A3028 RMK A01 T01710102  RH  064%=      5-min Rain = 0
KME1 091732Z 19007KT 17/10 A3028 RMK A01 T01700103  RH  064%=      5-min Rain = 0
KME1 091733Z 18008KT 17/10 A3028 RMK A01 T01710103  RH  064%=      5-min Rain = 0
KME1 091734Z 18008KT 17/10 A3028 RMK A01 T01720102  RH  064%=      5-min Rain = 0
KME1 091735Z 19008KT 17/10 A3028 RMK A01 T01720102  RH  064%=      5-min Rain = 0
KME1 091736Z 19009KT 17/10 A3028 RMK A01 T01730103  RH  064%=      5-min Rain = 0
KME1 091737Z 19007KT 17/10 A3028 RMK A01 T01740103  RH  063%=      5-min Rain = 0
KME1 091738Z 20008KT 17/10 A3028 RMK A01 T01740104  RH  063%=      5-min Rain = 0
KME1 091739Z 20009KT 17/10 A3028 RMK A01 T01740104  RH  063%=      5-min Rain = 0
KME1 091740Z 20008KT 17/10 A3028 RMK A01 T01740104  RH  063%=      5-min Rain = 0
KME1 091741Z 19007KT 17/10 A3028 RMK A01 T01730103  RH  063%=      5-min Rain = 0
KME1 091742Z 18007KT 17/10 A3028 RMK A01 T01730103  RH  063%=      5-min Rain = 0
KME1 091743Z 19008KT 18/11 A3028 RMK A01 T01750105  RH  063%=      5-min Rain = 0
KME1 091744Z 19007KT 18/11 A3028 RMK A01 T01770105  RH  063%=      5-min Rain = 0
KME1 091745Z 19008KT 18/10 A3028 RMK A01 T01780104  RH  062%=      5-min Rain = 0
KME1 091746Z 20007KT 18/11 A3028 RMK A01 T01770105  RH  063%=      5-min Rain = 0
KME1 091747Z 19008KT 18/10 A3028 RMK A01 T01780104  RH  062%=      5-min Rain = 0
KME1 091748Z 19009KT 18/10 A3028 RMK A01 T01780104  RH  062%=      5-min Rain = 0
KME1 091749Z 21008KT 18/11 A3028 RMK A01 T01780105  RH  062%=      5-min Rain = 0
KME1 091750Z 22008KT 18/11 A3027 RMK A01 T01790106  RH  062%=      5-min Rain = 0
KME1 091751Z 21006KT 18/11 A3027 RMK A01 T01780105  RH  062%=      5-min Rain = 0
KME1 091752Z 19007KT 18/10 A3027 RMK A01 T01780104  RH  062%=      5-min Rain = 0
KME1 091753Z 18007KT 18/11 A3027 RMK A01 T01790106  RH  062%=      5-min Rain = 0
KME1 091754Z 21009KT 18/11 A3027 RMK A01 T01810106  RH  061%=      5-min Rain = 0
KME1 091755Z 23007KT 18/11 A3027 RMK A01 T01810106  RH  061%=      5-min Rain = 0
KME1 091756Z 22007KT 18/11 A3027 RMK A01 T01800106  RH  062%=      5-min Rain = 0
KME1 091757Z 20007KT 18/11 A3027 RMK A01 T01790106  RH  062%=      5-min Rain = 0
KME1 091758Z 19006KT 18/11 A3027 RMK A01 T01800105  RH  062%=      5-min Rain = 0
KME1 091759Z 19006KT 18/11 A3027 RMK A01 T01800105  RH  061%=      5-min Rain = 0
KME1 091800Z 21006KT 18/11 A3027 RMK A01 T01800107  RH  062%=      5-min Rain = 0
KME1 091801Z 21005KT 18/11 A3027 RMK A01 T01820108  RH  062%=      5-min Rain = 0
KME1 091802Z 21004KT 18/11 A3026 RMK A01 T01830108  RH  061%=      5-min Rain = 0
KME1 091803Z 21005KT 19/11 A3026 RMK A01 T01850108  RH  061%=      5-min Rain = 0
KME1 091804Z 21008KT 19/11 A3026 RMK A01 T01850108  RH  061%=      5-min Rain = 0
KME1 091805Z 21009KT 19/11 A3026 RMK A01 T01860109  RH  061%=      5-min Rain = 0
KME1 091806Z 22008KT 19/11 A3026 RMK A01 T01860109  RH  061%=      5-min Rain = 0
KME1 091807Z 22005KT 19/11 A3026 RMK A01 T01870110  RH  061%=      5-min Rain = 0
KME1 091808Z 21005KT 19/11 A3026 RMK A01 T01870110  RH  061%=      5-min Rain = 0
KME1 091809Z 18006KT 19/11 A3026 RMK A01 T01890110  RH  060%=      5-min Rain = 0
KME1 091810Z 19007KT 19/11 A3026 RMK A01 T01890108  RH  059%=      5-min Rain = 0
KME1 091811Z 18009KT 19/11 A3026 RMK A01 T01890108  RH  059%=      5-min Rain = 0
KME1 091812Z 19006KT 19/11 A3026 RMK A01 T01890109  RH  060%=      5-min Rain = 0
KME1 091813Z 20010KT 19/11 A3026 RMK A01 T01900110  RH  060%=      5-min Rain = 0
KME1 091814Z 22008KT 19/11 A3026 RMK A01 T01900110  RH  060%=      5-min Rain = 0
KME1 091815Z 22009KT 19/11 A3026 RMK A01 T01880110  RH  060%=      5-min Rain = 0
KME1 091816Z 19008KT 19/11 A3026 RMK A01 T01880112  RH  061%=      5-min Rain = 0
KME1 091817Z 19006KT 19/11 A3026 RMK A01 T01890109  RH  060%=      5-min Rain = 0
KME1 091818Z 20009KT 19/11 A3025 RMK A01 T01890110  RH  060%=      5-min Rain = 0
KME1 091819Z 20009KT 19/11 A3025 RMK A01 T01890110  RH  060%=      5-min Rain = 0
KME1 091820Z 20007KT 19/11 A3025 RMK A01 T01890109  RH  060%=      5-min Rain = 0
KME1 091821Z 21007KT 19/11 A3025 RMK A01 T01890110  RH  060%=      5-min Rain = 0
KME1 091822Z 22006KT 19/11 A3025 RMK A01 T01890111  RH  060%=      5-min Rain = 0
KME1 091823Z 21009KT 19/11 A3025 RMK A01 T01900112  RH  060%=      5-min Rain = 0
KME1 091824Z 21007KT 19/11 A3025 RMK A01 T01920114  RH  060%=      5-min Rain = 0
KME1 091825Z 20007KT 19/11 A3025 RMK A01 T01940112  RH  059%=      5-min Rain = 0
KME1 091826Z 20004KT 19/11 A3025 RMK A01 T01940112  RH  059%=      5-min Rain = 0
KME1 091827Z 20005KT 19/11 A3025 RMK A01 T01940111  RH  059%=      5-min Rain = 0
KME1 091828Z 19005KT 19/11 A3025 RMK A01 T01940111  RH  059%=      5-min Rain = 0
KME1 091829Z 19006KT 20/11 A3025 RMK A01 T01960113  RH  059%=      5-min Rain = 0
KME1 091830Z 18007KT 20/11 A3025 RMK A01 T01980112  RH  058%=      5-min Rain = 0
KME1 091831Z 19005KT 20/11 A3025 RMK A01 T02000111  RH  057%=      5-min Rain = 0
KME1 091832Z 20005KT 20/11 A3024 RMK A01 T01990111  RH  057%=      5-min Rain = 0
KME1 091833Z 21009KT 20/11 A3024 RMK A01 T02000113  RH  057%=      5-min Rain = 0
KME1 091834Z 22006KT 20/11 A3024 RMK A01 T01990113  RH  057%=      5-min Rain = 0
KME1 091835Z 20007KT 20/12 A3024 RMK A01 T01980115  RH  059%=      5-min Rain = 0
KME1 091836Z 20007KT 20/11 A3024 RMK A01 T01990113  RH  058%=      5-min Rain = 0
KME1 091837Z 20007KT 20/11 A3024 RMK A01 T01990113  RH  057%=      5-min Rain = 0
KME1 091838Z 21007KT 20/11 A3024 RMK A01 T01980112  RH  058%=      5-min Rain = 0
KME1 091839Z 23005KT 20/11 A3024 RMK A01 T01960112  RH  058%=      5-min Rain = 0
KME1 091840Z 22004KT 20/11 A3024 RMK A01 T01960114  RH  059%=      5-min Rain = 0
KME1 091841Z 18006KT 20/11 A3024 RMK A01 T01970114  RH  059%=      5-min Rain = 0
KME1 091842Z 20008KT 20/12 A3024 RMK A01 T01990115  RH  058%=      5-min Rain = 0
KME1 091843Z 23006KT 20/11 A3024 RMK A01 T02010113  RH  057%=      5-min Rain = 0
KME1 091844Z 22007KT 20/12 A3024 RMK A01 T02000115  RH  058%=      5-min Rain = 0
KME1 091845Z 20005KT 20/11 A3023 RMK A01 T01990113  RH  058%=      5-min Rain = 0
KME1 091846Z 18007KT 20/11 A3023 RMK A01 T02000113  RH  057%=      5-min Rain = 0
KME1 091847Z 18004KT 20/11 A3023 RMK A01 T02010112  RH  057%=      5-min Rain = 0
KME1 091848Z 17004KT 20/11 A3023 RMK A01 T02010112  RH  056%=      5-min Rain = 0
KME1 091849Z 18007KT 20/11 A3023 RMK A01 T02010112  RH  056%=      5-min Rain = 0
KME1 091850Z 17009KT 20/11 A3023 RMK A01 T02010113  RH  057%=      5-min Rain = 0
KME1 091851Z 18009KT 20/11 A3023 RMK A01 T02030114  RH  057%=      5-min Rain = 0
KME1 091852Z 19008KT 20/11 A3023 RMK A01 T02030113  RH  056%=      5-min Rain = 0
KME1 091853Z 18005KT 20/11 A3023 RMK A01 T02030114  RH  057%=      5-min Rain = 0
KME1 091854Z 19006KT 20/11 A3023 RMK A01 T02030113  RH  056%=      5-min Rain = 0
KME1 091855Z 22007KT 20/11 A3023 RMK A01 T02030114  RH  057%=      5-min Rain = 0
KME1 091856Z 21006KT 20/11 A3023 RMK A01 T02020114  RH  057%=      5-min Rain = 0
KME1 091857Z 19006G11KT 20/11 A3023 RMK A01 T02010114  RH  057%=      5-min Rain = 0
KME1 091858Z 18007KT 20/11 A3023 RMK A01 T02010112  RH  057%=      5-min Rain = 0
KME1 091859Z 20009KT 20/11 A3023 RMK A01 T02020114  RH  057%=      5-min Rain = 0
KME1 091900Z 21008KT 20/12 A3023 RMK A01 T02020115  RH  057%=      5-min Rain = 0
KME1 091901Z 20008KT 20/11 A3022 RMK A01 T02020114  RH  057%=      5-min Rain = 0
KME1 091902Z 20006KT 20/11 A3022 RMK A01 T02000113  RH  057%=      5-min Rain = 0
KME1 091903Z 19005KT 20/11 A3022 RMK A01 T01990114  RH  058%=      5-min Rain = 0
KME1 091904Z 19007KT 20/11 A3022 RMK A01 T01990112  RH  057%=      5-min Rain = 0
KME1 091905Z 17006KT 20/11 A3022 RMK A01 T01990112  RH  057%=      5-min Rain = 0
KME1 091906Z 19005KT 20/11 A3022 RMK A01 T01990112  RH  057%=      5-min Rain = 0
KME1 091907Z 20006KT 20/11 A3022 RMK A01 T02000112  RH  057%=      5-min Rain = 0
KME1 091908Z 22006KT 20/11 A3022 RMK A01 T02000114  RH  058%=      5-min Rain = 0
KME1 091909Z 22007KT 20/12 A3022 RMK A01 T02010115  RH  058%=      5-min Rain = 0
KME1 091910Z 22006KT 20/11 A3022 RMK A01 T02020114  RH  057%=      5-min Rain = 0
KME1 091911Z 22003KT 20/11 A3022 RMK A01 T02010113  RH  057%=      5-min Rain = 0
KME1 091912Z 22006KT 20/11 A3022 RMK A01 T02010114  RH  057%=      5-min Rain = 0
KME1 091913Z 20005KT 20/11 A3022 RMK A01 T02010113  RH  057%=      5-min Rain = 0
KME1 091914Z 21006KT 20/11 A3022 RMK A01 T02010114  RH  057%=      5-min Rain = 0
KME1 091915Z 22006KT 20/11 A3022 RMK A01 T02010113  RH  057%=      5-min Rain = 0
KME1 091916Z 20007KT 20/11 A3022 RMK A01 T01990114  RH  058%=      5-min Rain = 0
KME1 091917Z 19007KT 20/11 A3022 RMK A01 T02000114  RH  058%=      5-min Rain = 0
KME1 091918Z 18005KT 20/11 A3021 RMK A01 T02010112  RH  057%=      5-min Rain = 0
KME1 091919Z 17006KT 20/11 A3021 RMK A01 T02020114  RH  057%=      5-min Rain = 0
KME1 091920Z 18006KT 20/11 A3021 RMK A01 T02030113  RH  056%=      5-min Rain = 0
KME1 091921Z 18007KT 20/11 A3021 RMK A01 T02040113  RH  056%=      5-min Rain = 0
KME1 091922Z 18007KT 20/11 A3021 RMK A01 T02030113  RH  056%=      5-min Rain = 0
KME1 091923Z 19006KT 20/11 A3021 RMK A01 T02030112  RH  056%=      5-min Rain = 0
KME1 091924Z 20005KT 20/11 A3021 RMK A01 T02020112  RH  056%=      5-min Rain = 0
KME1 091925Z 22007KT 20/11 A3021 RMK A01 T02020113  RH  057%=      5-min Rain = 0
KME1 091926Z 19004KT 20/11 A3021 RMK A01 T02020113  RH  056%=      5-min Rain = 0
KME1 091927Z 18004KT 20/11 A3021 RMK A01 T02010112  RH  057%=      5-min Rain = 0
KME1 091928Z 18005KT 20/11 A3021 RMK A01 T02020113  RH  057%=      5-min Rain = 0
KME1 091929Z 17004KT 20/11 A3021 RMK A01 T02030112  RH  056%=      5-min Rain = 0
KME1 091930Z 19004KT 20/11 A3021 RMK A01 T02030113  RH  056%=      5-min Rain = 0
KME1 091931Z 17006G13KT 20/11 A3021 RMK A01 T02040114  RH  056%=      5-min Rain = 0
KME1 091932Z 21009KT 21/12 A3021 RMK A01 T02050115  RH  056%=      5-min Rain = 0
KME1 091933Z 20005KT 21/11 A3021 RMK A01 T02060114  RH  056%=      5-min Rain = 0
KME1 091934Z 20007KT 21/12 A3021 RMK A01 T02060115  RH  056%=      5-min Rain = 0
KME1 091935Z 20006KT 21/12 A3021 RMK A01 T02060115  RH  056%=      5-min Rain = 0
KME1 091936Z 19004KT 21/12 A3021 RMK A01 T02060115  RH  056%=      5-min Rain = 0
KME1 091937Z 18004KT 21/12 A3021 RMK A01 T02060116  RH  056%=      5-min Rain = 0
KME1 091938Z 18002KT 21/12 A3021 RMK A01 T02070116  RH  056%=      5-min Rain = 0
KME1 091939Z 18004KT 21/12 A302 RMK A01 T02090116  RH  055%=      5-min Rain = 0
KME1 091940Z 18003KT 21/12 A302 RMK A01 T02090115  RH  055%=      5-min Rain = 0
KME1 091941Z 19004KT 21/12 A302 RMK A01 T02080115  RH  055%=      5-min Rain = 0
KME1 091942Z 21004KT 21/11 A302 RMK A01 T02080114  RH  055%=      5-min Rain = 0
KME1 091943Z 20004KT 21/12 A302 RMK A01 T02080116  RH  056%=      5-min Rain = 0
KME1 091944Z 21005KT 21/12 A302 RMK A01 T02080117  RH  056%=      5-min Rain = 0
KME1 091945Z 20007KT 21/12 A302 RMK A01 T02080116  RH  055%=      5-min Rain = 0
KME1 091946Z 19005KT 21/12 A302 RMK A01 T02080115  RH  055%=      5-min Rain = 0
KME1 091947Z 19007KT 21/12 A302 RMK A01 T02080116  RH  056%=      5-min Rain = 0
KME1 091948Z 17005KT 21/12 A302 RMK A01 T02090115  RH  055%=      5-min Rain = 0
KME1 091949Z 19004KT 21/12 A302 RMK A01 T02090116  RH  055%=      5-min Rain = 0
KME1 091950Z 20003KT 21/12 A302 RMK A01 T02090115  RH  055%=      5-min Rain = 0
KME1 091951Z 21002KT 21/11 A302 RMK A01 T02080114  RH  055%=      5-min Rain = 0
KME1 091952Z 18005KT 21/12 A302 RMK A01 T02070116  RH  056%=      5-min Rain = 0
KME1 091953Z 19004KT 21/12 A302 RMK A01 T02080115  RH  055%=      5-min Rain = 0
KME1 091954Z 19005KT 21/12 A302 RMK A01 T02090117  RH  056%=      5-min Rain = 0
KME1 091955Z 16004KT 21/12 A302 RMK A01 T02100117  RH  055%=      5-min Rain = 0
KME1 091956Z 17002KT 21/12 A302 RMK A01 T02110116  RH  054%=      5-min Rain = 0
KME1 091957Z 17004KT 21/12 A302 RMK A01 T02110115  RH  054%=      5-min Rain = 0
KME1 091958Z 19005KT 21/12 A302 RMK A01 T02100116  RH  055%=      5-min Rain = 0
KME1 091959Z 21005KT 21/12 A302 RMK A01 T02100118  RH  056%=      5-min Rain = 0
KME1 092000Z 19004KT 21/12 A302 RMK A01 T02120116  RH  054%=      5-min Rain = 0
KME1 092001Z 17006KT 21/12 A3019 RMK A01 T02120115  RH  054%=      5-min Rain = 0
KME1 092002Z 18005KT 21/12 A3019 RMK A01 T02120117  RH  054%=      5-min Rain = 0
KME1 092003Z 22005KT 21/12 A3019 RMK A01 T02120116  RH  054%=      5-min Rain = 0
KME1 092004Z 20007KT 21/12 A3019 RMK A01 T02120118  RH  055%=      5-min Rain = 0
KME1 092005Z 20006KT 21/12 A3019 RMK A01 T02130117  RH  054%=      5-min Rain = 0
KME1 092006Z 22006KT 21/12 A3019 RMK A01 T02130119  RH  055%=      5-min Rain = 0
KME1 092007Z 22006KT 21/12 A3019 RMK A01 T02140120  RH  055%=      5-min Rain = 0
KME1 092008Z 21007KT 22/12 A3019 RMK A01 T02150118  RH  054%=      5-min Rain = 0
KME1 092009Z 20007KT 22/12 A3019 RMK A01 T02150119  RH  054%=      5-min Rain = 0
KME1 092010Z 22004KT 22/12 A3019 RMK A01 T02150117  RH  054%=      5-min Rain = 0
KME1 092011Z 23003KT 21/12 A3019 RMK A01 T02140116  RH  054%=      5-min Rain = 0
KME1 092012Z 21005KT 21/12 A3019 RMK A01 T02130117  RH  054%=      5-min Rain = 0
KME1 092013Z 20005KT 21/12 A3019 RMK A01 T02120117  RH  055%=      5-min Rain = 0
KME1 092014Z 21006KT 21/12 A3019 RMK A01 T02120118  RH  055%=      5-min Rain = 0
KME1 092015Z 25003KT 21/12 A3019 RMK A01 T02140117  RH  054%=      5-min Rain = 0
KME1 092016Z 29001KT 21/12 A3019 RMK A01 T02140117  RH  054%=      5-min Rain = 0
KME1 092017Z 20000KT 21/12 A3019 RMK A01 T02140118  RH  054%=      5-min Rain = 0
KME1 092018Z 20004KT 21/12 A3019 RMK A01 T02140117  RH  054%=      5-min Rain = 0
KME1 092019Z 17004G9KT 22/12 A3019 RMK A01 T02150118  RH  054%=      5-min Rain = 0
KME1 092020Z 21008KT 22/12 A3019 RMK A01 T02160119  RH  054%=      5-min Rain = 0
KME1 092021Z 21008KT 22/12 A3019 RMK A01 T02180120  RH  054%=      5-min Rain = 0
KME1 092022Z 21006KT 22/12 A3019 RMK A01 T02180119  RH  053%=      5-min Rain = 0
KME1 092023Z 22005KT 22/12 A3019 RMK A01 T02170120  RH  054%=      5-min Rain = 0
KME1 092024Z 21003KT 22/12 A3019 RMK A01 T02170120  RH  054%=      5-min Rain = 0
KME1 092025Z 21003KT 22/12 A3019 RMK A01 T02180119  RH  053%=      5-min Rain = 0
KME1 092026Z 21006KT 22/12 A3019 RMK A01 T02180119  RH  053%=      5-min Rain = 0
KME1 092027Z 20005KT 22/12 A3019 RMK A01 T02170119  RH  054%=      5-min Rain = 0
KME1 092028Z 16006KT 22/12 A3019 RMK A01 T02170120  RH  054%=      5-min Rain = 0
KME1 092029Z 16005KT 22/12 A3019 RMK A01 T02160119  RH  054%=      5-min Rain = 0
KME1 092030Z 17006KT 22/12 A3019 RMK A01 T02170120  RH  054%=      5-min Rain = 0
KME1 092031Z 18007KT 22/12 A3019 RMK A01 T02190120  RH  053%=      5-min Rain = 0
KME1 092032Z 19004KT 22/12 A3019 RMK A01 T02200119  RH  053%=      5-min Rain = 0
KME1 092033Z 17004KT 22/12 A3019 RMK A01 T02190119  RH  053%=      5-min Rain = 0
KME1 092034Z 21006KT 22/12 A3019 RMK A01 T02200120  RH  053%=      5-min Rain = 0
KME1 092035Z 21005KT 22/12 A3019 RMK A01 T02200121  RH  053%=      5-min Rain = 0
KME1 092036Z 21004KT 22/12 A3018 RMK A01 T02190120  RH  053%=      5-min Rain = 0
KME1 092037Z 18002KT 22/12 A3018 RMK A01 T02180119  RH  054%=      5-min Rain = 0
KME1 092038Z 17002KT 22/12 A3018 RMK A01 T02170119  RH  054%=      5-min Rain = 0
KME1 092039Z 14003KT 22/12 A3018 RMK A01 T02170118  RH  053%=      5-min Rain = 0
KME1 092040Z 18003KT 22/12 A3018 RMK A01 T02170119  RH  053%=      5-min Rain = 0
KME1 092041Z 20003KT 22/12 A3018 RMK A01 T02170118  RH  053%=      5-min Rain = 0
KME1 092042Z 20003KT 22/12 A3018 RMK A01 T02170120  RH  054%=      5-min Rain = 0
KME1 092043Z 19006KT 22/12 A3018 RMK A01 T02190120  RH  053%=      5-min Rain = 0
KME1 092044Z 21007KT 22/12 A3018 RMK A01 T02200120  RH  053%=      5-min Rain = 0
KME1 092045Z 22007KT 22/12 A3018 RMK A01 T02200120  RH  053%=      5-min Rain = 0
KME1 092046Z 23006KT 22/12 A3018 RMK A01 T02200119  RH  053%=      5-min Rain = 0
KME1 092047Z 22005KT 22/12 A3018 RMK A01 T02190118  RH  053%=      5-min Rain = 0
KME1 092048Z 18005KT 22/12 A3018 RMK A01 T02180119  RH  053%=      5-min Rain = 0
KME1 092049Z 16004KT 22/12 A3018 RMK A01 T02180119  RH  053%=      5-min Rain = 0
KME1 092050Z 15005KT 22/12 A3018 RMK A01 T02180118  RH  053%=      5-min Rain = 0
KME1 092051Z 14005KT 22/12 A3018 RMK A01 T02180119  RH  053%=      5-min Rain = 0
KME1 092052Z 15006KT 22/12 A3018 RMK A01 T02180120  RH  054%=      5-min Rain = 0
KME1 092053Z 16008KT 22/12 A3018 RMK A01 T02190120  RH  053%=      5-min Rain = 0
KME1 092054Z 18007KT 22/12 A3018 RMK A01 T02200119  RH  053%=      5-min Rain = 0
KME1 092055Z 18005KT 22/12 A3018 RMK A01 T02200120  RH  053%=      5-min Rain = 0
KME1 092056Z 17006KT 22/12 A3018 RMK A01 T02200120  RH  053%=      5-min Rain = 0
KME1 092057Z 16006KT 22/12 A3018 RMK A01 T02220121  RH  053%=      5-min Rain = 0
KME1 092058Z 15007KT 22/12 A3017 RMK A01 T02220120  RH  052%=      5-min Rain = 0
KME1 092059Z 17008KT 22/12 A3017 RMK A01 T02230121  RH  052%=      5-min Rain = 0
KME1 092100Z 16005KT 22/12 A3017 RMK A01 T02220118  RH  052%=      5-min Rain = 0
KME1 092101Z 15006KT 22/12 A3017 RMK A01 T02190118  RH  053%=      5-min Rain = 0
KME1 092102Z 15005KT 22/12 A3017 RMK A01 T02190120  RH  053%=      5-min Rain = 0
KME1 092103Z 16005KT 22/12 A3017 RMK A01 T02200120  RH  053%=      5-min Rain = 0
KME1 092104Z 19007KT 22/12 A3017 RMK A01 T02210120  RH  053%=      5-min Rain = 0
KME1 092105Z 22007KT 22/12 A3017 RMK A01 T02220119  RH  052%=      5-min Rain = 0
KME1 092106Z 21008KT 22/12 A3017 RMK A01 T02220120  RH  052%=      5-min Rain = 0
KME1 092107Z 21009KT 22/12 A3017 RMK A01 T02220119  RH  052%=      5-min Rain = 0
KME1 092108Z 20006KT 22/12 A3017 RMK A01 T02210118  RH  052%=      5-min Rain = 0
KME1 092109Z 21005KT 22/12 A3017 RMK A01 T02200117  RH  052%=      5-min Rain = 0
KME1 092110Z 20004KT 22/12 A3017 RMK A01 T02190117  RH  052%=      5-min Rain = 0
KME1 092111Z 19005KT 22/12 A3017 RMK A01 T02190117  RH  052%=      5-min Rain = 0
KME1 092112Z 18003KT 22/12 A3017 RMK A01 T02200117  RH  052%=      5-min Rain = 0
KME1 092113Z 20003KT 22/12 A3017 RMK A01 T02200117  RH  052%=      5-min Rain = 0
KME1 092114Z 17005G11KT 22/12 A3017 RMK A01 T02200118  RH  052%=      5-min Rain = 0
KME1 092115Z 21006KT 22/12 A3017 RMK A01 T02200118  RH  052%=      5-min Rain = 0
KME1 092116Z 18004KT 22/12 A3017 RMK A01 T02200118  RH  052%=      5-min Rain = 0
KME1 092117Z 17006KT 22/12 A3017 RMK A01 T02190118  RH  053%=      5-min Rain = 0
KME1 092118Z 17006KT 22/12 A3017 RMK A01 T02200118  RH  053%=      5-min Rain = 0
KME1 092119Z 20006KT 22/12 A3017 RMK A01 T02200118  RH  052%=      5-min Rain = 0
KME1 092120Z 23005KT 22/12 A3017 RMK A01 T02210118  RH  052%=      5-min Rain = 0
KME1 092121Z 21005KT 22/12 A3017 RMK A01 T02210116  RH  051%=      5-min Rain = 0
KME1 092122Z 19006KT 22/12 A3017 RMK A01 T02210117  RH  051%=      5-min Rain = 0
KME1 092123Z 20006KT 22/12 A3016 RMK A01 T02210116  RH  051%=      5-min Rain = 0
KME1 092124Z 21006KT 22/12 A3016 RMK A01 T02200115  RH  051%=      5-min Rain = 0
KME1 092125Z 24006KT 22/12 A3016 RMK A01 T02200116  RH  052%=      5-min Rain = 0
KME1 092126Z 22005KT 22/12 A3016 RMK A01 T02200116  RH  052%=      5-min Rain = 0
KME1 092127Z 22004KT 22/12 A3016 RMK A01 T02200118  RH  052%=      5-min Rain = 0
KME1 092128Z 19004KT 22/12 A3016 RMK A01 T02220118  RH  052%=      5-min Rain = 0
KME1 092129Z 17006KT 22/12 A3016 RMK A01 T02230118  RH  051%=      5-min Rain = 0
KME1 092130Z 16006KT 22/12 A3016 RMK A01 T02240118  RH  051%=      5-min Rain = 0
KME1 092131Z 18003KT 22/12 A3016 RMK A01 T02230120  RH  052%=      5-min Rain = 0
KME1 092132Z 18005KT 22/12 A3016 RMK A01 T02240117  RH  051%=      5-min Rain = 0
KME1 092133Z 17005KT 22/12 A3016 RMK A01 T02230117  RH  051%=      5-min Rain = 0
KME1 092134Z 19005KT 22/12 A3016 RMK A01 T02230117  RH  051%=      5-min Rain = 0
KME1 092135Z 18005KT 22/12 A3016 RMK A01 T02220116  RH  051%=      5-min Rain = 0
KME1 092136Z 18008KT 22/12 A3016 RMK A01 T02230116  RH  051%=      5-min Rain = 0
KME1 092137Z 17005KT 22/11 A3016 RMK A01 T02220114  RH  050%=      5-min Rain = 0
KME1 092138Z 17005KT 22/12 A3016 RMK A01 T02210115  RH  051%=      5-min Rain = 0
KME1 092139Z 17004KT 22/12 A3016 RMK A01 T02200115  RH  051%=      5-min Rain = 0
KME1 092140Z 18002KT 22/12 A3016 RMK A01 T02210115  RH  051%=      5-min Rain = 0
KME1 092141Z 13002KT 22/12 A3016 RMK A01 T02210116  RH  051%=      5-min Rain = 0
KME1 092142Z 15002KT 22/12 A3016 RMK A01 T02210115  RH  051%=      5-min Rain = 0
KME1 092143Z 17003KT 22/12 A3016 RMK A01 T02220117  RH  051%=      5-min Rain = 0
KME1 092144Z 19004KT 22/12 A3015 RMK A01 T02230117  RH  051%=      5-min Rain = 0
KME1 092145Z 18005KT 23/12 A3015 RMK A01 T02250117  RH  050%=      5-min Rain = 0
KME1 092146Z 18005KT 23/12 A3015 RMK A01 T02250117  RH  050%=      5-min Rain = 0
KME1 092147Z 18004KT 23/12 A3015 RMK A01 T02260116  RH  050%=      5-min Rain = 0
KME1 092148Z 19003KT 23/12 A3015 RMK A01 T02250116  RH  050%=      5-min Rain = 0
KME1 092149Z 21003KT 23/12 A3015 RMK A01 T02250117  RH  050%=      5-min Rain = 0
KME1 092150Z 21006KT 23/12 A3015 RMK A01 T02260117  RH  050%=      5-min Rain = 0
KME1 092151Z 21007KT 23/12 A3015 RMK A01 T02270118  RH  050%=      5-min Rain = 0
KME1 092152Z 20006KT 23/12 A3015 RMK A01 T02270117  RH  050%=      5-min Rain = 0
KME1 092153Z 18004KT 23/12 A3015 RMK A01 T02250117  RH  050%=      5-min Rain = 0
KME1 092154Z 15004KT 23/12 A3015 RMK A01 T02250117  RH  050%=      5-min Rain = 0
KME1 092155Z 16004KT 22/12 A3015 RMK A01 T02240116  RH  050%=      5-min Rain = 0
KME1 092156Z 15004KT 22/12 A3015 RMK A01 T02240116  RH  051%=      5-min Rain = 0
KME1 092157Z 15005KT 22/12 A3015 RMK A01 T02240117  RH  051%=      5-min Rain = 0
KME1 092158Z 17004KT 23/12 A3015 RMK A01 T02250117  RH  050%=      5-min Rain = 0
KME1 092159Z 18003KT 23/12 A3015 RMK A01 T02250116  RH  050%=      5-min Rain = 0
KME1 092200Z 17003KT 23/12 A3015 RMK A01 T02250117  RH  050%=      5-min Rain = 0
KME1 092201Z 15004KT 23/12 A3015 RMK A01 T02260117  RH  050%=      5-min Rain = 0
KME1 092202Z 14004KT 23/12 A3015 RMK A01 T02260117  RH  050%=      5-min Rain = 0
KME1 092203Z 14005KT 23/12 A3015 RMK A01 T02260116  RH  050%=      5-min Rain = 0
KME1 092204Z 15004KT 23/12 A3015 RMK A01 T02260116  RH  050%=      5-min Rain = 0
KME1 092205Z 15006KT 23/12 A3015 RMK A01 T02250116  RH  050%=      5-min Rain = 0
KME1 092206Z 19007KT 23/12 A3015 RMK A01 T02250116  RH  050%=      5-min Rain = 0
KME1 092207Z 18005KT 23/11 A3015 RMK A01 T02250113  RH  049%=      5-min Rain = 0
KME1 092208Z 17006KT 23/12 A3015 RMK A01 T02250115  RH  050%=      5-min Rain = 0
KME1 092209Z 18004KT 23/12 A3015 RMK A01 T02250116  RH  050%=      5-min Rain = 0
KME1 092210Z 17004KT 22/12 A3015 RMK A01 T02240115  RH  050%=      5-min Rain = 0
KME1 092211Z 19006KT 23/12 A3015 RMK A01 T02250116  RH  050%=      5-min Rain = 0
KME1 092212Z 19006KT 23/12 A3015 RMK A01 T02260116  RH  050%=      5-min Rain = 0
KME1 092213Z 17007KT 23/12 A3015 RMK A01 T02260116  RH  050%=      5-min Rain = 0
KME1 092214Z 17006KT 23/12 A3015 RMK A01 T02250115  RH  050%=      5-min Rain = 0
KME1 092215Z 18006KT 22/12 A3015 RMK A01 T02240115  RH  050%=      5-min Rain = 0
KME1 092216Z 18006KT 22/12 A3015 RMK A01 T02230115  RH  050%=      5-min Rain = 0
KME1 092217Z 18005KT 22/12 A3015 RMK A01 T02230115  RH  050%=      5-min Rain = 0
KME1 092218Z 18004KT 22/12 A3015 RMK A01 T02230115  RH  050%=      5-min Rain = 0
KME1 092219Z 17003KT 22/12 A3015 RMK A01 T02220115  RH  050%=      5-min Rain = 0
KME1 092220Z 19003KT 22/12 A3015 RMK A01 T02230115  RH  051%=      5-min Rain = 0
KME1 092221Z 19004KT 22/12 A3015 RMK A01 T02230115  RH  050%=      5-min Rain = 0
KME1 092222Z 19005KT 22/12 A3015 RMK A01 T02230115  RH  050%=      5-min Rain = 0
KME1 092223Z 17006KT 22/12 A3014 RMK A01 T02220116  RH  051%=      5-min Rain = 0
KME1 092224Z 16006KT 22/12 A3014 RMK A01 T02220115  RH  051%=      5-min Rain = 0
KME1 092225Z 15005KT 22/12 A3014 RMK A01 T02210115  RH  051%=      5-min Rain = 0
KME1 092226Z 15003KT 22/12 A3014 RMK A01 T02210115  RH  051%=      5-min Rain = 0
KME1 092227Z 16005KT 22/12 A3014 RMK A01 T02210115  RH  051%=      5-min Rain = 0
KME1 092228Z 15004KT 22/11 A3014 RMK A01 T02200114  RH  051%=      5-min Rain = 0
KME1 092229Z 16003KT 22/12 A3014 RMK A01 T02200116  RH  051%=      5-min Rain = 0
KME1 092230Z 16003KT 22/12 A3014 RMK A01 T02210116  RH  051%=      5-min Rain = 0
KME1 092231Z 15004KT 22/12 A3014 RMK A01 T02210115  RH  051%=      5-min Rain = 0
KME1 092232Z 16004KT 22/11 A3014 RMK A01 T02220114  RH  050%=      5-min Rain = 0
KME1 092233Z 14003KT 22/11 A3014 RMK A01 T02210114  RH  051%=      5-min Rain = 0
KME1 092234Z 16003KT 22/11 A3014 RMK A01 T02210114  RH  051%=      5-min Rain = 0
KME1 092235Z 16003KT 22/11 A3014 RMK A01 T02200114  RH  051%=      5-min Rain = 0
KME1 092236Z 16003KT 22/11 A3014 RMK A01 T02210114  RH  051%=      5-min Rain = 0
KME1 092237Z 17001KT 22/11 A3014 RMK A01 T02200114  RH  051%=      5-min Rain = 0
KME1 092238Z 13002KT 22/11 A3014 RMK A01 T02200114  RH  051%=      5-min Rain = 0
KME1 092239Z 15004KT 22/11 A3014 RMK A01 T02200114  RH  051%=      5-min Rain = 0
KME1 092240Z 17005KT 22/12 A3014 RMK A01 T02200116  RH  052%=      5-min Rain = 0
KME1 092241Z 20004KT 22/12 A3014 RMK A01 T02180115  RH  052%=      5-min Rain = 0
KME1 092242Z 18003KT 22/11 A3014 RMK A01 T02160114  RH  052%=      5-min Rain = 0
KME1 092243Z 21003KT 22/12 A3014 RMK A01 T02160115  RH  053%=      5-min Rain = 0
KME1 092244Z 22004KT 22/11 A3014 RMK A01 T02150114  RH  052%=      5-min Rain = 0
KME1 092245Z 20004KT 22/11 A3014 RMK A01 T02150114  RH  052%=      5-min Rain = 0
KME1 092246Z 19006KT 21/11 A3014 RMK A01 T02140114  RH  053%=      5-min Rain = 0
KME1 092247Z 19006KT 21/11 A3014 RMK A01 T02130113  RH  053%=      5-min Rain = 0
KME1 092248Z 20005KT 21/11 A3014 RMK A01 T02120113  RH  053%=      5-min Rain = 0
KME1 092249Z 20003KT 21/11 A3014 RMK A01 T02110114  RH  054%=      5-min Rain = 0
KME1 092250Z 20003KT 21/11 A3014 RMK A01 T02100113  RH  054%=      5-min Rain = 0
KME1 092251Z 20004KT 21/11 A3014 RMK A01 T02100113  RH  054%=      5-min Rain = 0
KME1 092252Z 20003KT 21/11 A3014 RMK A01 T02100114  RH  054%=      5-min Rain = 0
KME1 092253Z 19003KT 21/11 A3014 RMK A01 T02100113  RH  054%=      5-min Rain = 0
KME1 092254Z 18004KT 21/11 A3014 RMK A01 T02100113  RH  054%=      5-min Rain = 0
KME1 092255Z 18005KT 21/11 A3014 RMK A01 T02110113  RH  054%=      5-min Rain = 0
KME1 092256Z 18004KT 21/11 A3014 RMK A01 T02110113  RH  053%=      5-min Rain = 0
KME1 092257Z 17003KT 21/11 A3014 RMK A01 T02110114  RH  054%=      5-min Rain = 0
KME1 092258Z 17003KT 21/11 A3014 RMK A01 T02120114  RH  054%=      5-min Rain = 0
KME1 092259Z 17003KT 21/11 A3014 RMK A01 T02120114  RH  054%=      5-min Rain = 0
KME1 092300Z 18003KT 21/12 A3014 RMK A01 T02130115  RH  053%=      5-min Rain = 0
KME1 092301Z 18004KT 21/11 A3014 RMK A01 T02140114  RH  053%=      5-min Rain = 0
KME1 092302Z 17004KT 21/11 A3014 RMK A01 T02140114  RH  053%=      5-min Rain = 0
KME1 092303Z 18005KT 21/11 A3014 RMK A01 T02140114  RH  053%=      5-min Rain = 0
KME1 092304Z 18005KT 21/11 A3014 RMK A01 T02140114  RH  053%=      5-min Rain = 0
KME1 092305Z 18005KT 21/12 A3014 RMK A01 T02140115  RH  053%=      5-min Rain = 0
KME1 092306Z 18005KT 21/11 A3014 RMK A01 T02130114  RH  053%=      5-min Rain = 0
KME1 092307Z 18004KT 21/11 A3014 RMK A01 T02130114  RH  053%=      5-min Rain = 0
KME1 092308Z 17005KT 21/11 A3014 RMK A01 T02130114  RH  053%=      5-min Rain = 0
KME1 092309Z 17005KT 21/11 A3014 RMK A01 T02130114  RH  053%=      5-min Rain = 0
KME1 092310Z 17004KT 21/11 A3014 RMK A01 T02120114  RH  053%=      5-min Rain = 0
KME1 092311Z 17004KT 21/11 A3014 RMK A01 T02120114  RH  054%=      5-min Rain = 0
KME1 092312Z 17004KT 21/12 A3014 RMK A01 T02110115  RH  054%=      5-min Rain = 0
KME1 092313Z 17005KT 21/11 A3014 RMK A01 T02110114  RH  054%=      5-min Rain = 0
KME1 092314Z 17005KT 21/11 A3014 RMK A01 T02110114  RH  054%=      5-min Rain = 0
KME1 092315Z 17004KT 21/11 A3014 RMK A01 T02100114  RH  054%=      5-min Rain = 0
KME1 092316Z 16004KT 21/12 A3014 RMK A01 T02100115  RH  055%=      5-min Rain = 0
KME1 092317Z 17005KT 21/12 A3014 RMK A01 T02090115  RH  055%=      5-min Rain = 0
KME1 092318Z 17007KT 21/12 A3014 RMK A01 T02090115  RH  055%=      5-min Rain = 0
KME1 092319Z 17006KT 21/12 A3014 RMK A01 T02080115  RH  055%=      5-min Rain = 0
KME1 092320Z 16006KT 21/12 A3014 RMK A01 T02080116  RH  056%=      5-min Rain = 0
KME1 092321Z 16007KT 21/12 A3014 RMK A01 T02070116  RH  056%=      5-min Rain = 0
KME1 092322Z 16005KT 21/12 A3014 RMK A01 T02060117  RH  056%=      5-min Rain = 0
KME1 092323Z 17005KT 21/12 A3014 RMK A01 T02060117  RH  057%=      5-min Rain = 0
KME1 092324Z 18004KT 21/12 A3014 RMK A01 T02050117  RH  057%=      5-min Rain = 0
KME1 092325Z 18004KT 20/12 A3014 RMK A01 T02040117  RH  057%=      5-min Rain = 0
KME1 092326Z 18004KT 20/12 A3014 RMK A01 T02040117  RH  057%=      5-min Rain = 0
KME1 092327Z 18005KT 20/12 A3014 RMK A01 T02030117  RH  057%=      5-min Rain = 0
KME1 092328Z 18006KT 20/12 A3014 RMK A01 T02030117  RH  058%=      5-min Rain = 0
KME1 092329Z 18005KT 20/12 A3014 RMK A01 T02020116  RH  058%=      5-min Rain = 0
KME1 092330Z 18006KT 20/12 A3014 RMK A01 T02010116  RH  058%=      5-min Rain = 0
KME1 092331Z 18005KT 20/12 A3014 RMK A01 T02000116  RH  058%=      5-min Rain = 0
KME1 092332Z 18006KT 20/12 A3014 RMK A01 T01990117  RH  059%=      5-min Rain = 0
KME1 092333Z 17005KT 20/12 A3014 RMK A01 T01990116  RH  059%=      5-min Rain = 0
KME1 092334Z 18006KT 20/12 A3014 RMK A01 T01980117  RH  059%=      5-min Rain = 0
KME1 092335Z 17005KT 20/12 A3014 RMK A01 T01970116  RH  060%=      5-min Rain = 0
KME1 092336Z 18006KT 20/12 A3014 RMK A01 T01960116  RH  060%=      5-min Rain = 0
KME1 092337Z 17005KT 20/12 A3014 RMK A01 T01950116  RH  060%=      5-min Rain = 0
KME1 092338Z 17005KT 19/12 A3014 RMK A01 T01940116  RH  061%=      5-min Rain = 0
KME1 092339Z 17005KT 19/12 A3014 RMK A01 T01930117  RH  061%=      5-min Rain = 0
KME1 092340Z 16004KT 19/12 A3014 RMK A01 T01920117  RH  062%=      5-min Rain = 0
KME1 092341Z 17004KT 19/12 A3014 RMK A01 T01910117  RH  062%=      5-min Rain = 0
KME1 092342Z 16005KT 19/12 A3014 RMK A01 T01900117  RH  063%=      5-min Rain = 0
KME1 092343Z 17004KT 19/12 A3014 RMK A01 T01890118  RH  063%=      5-min Rain = 0
KME1 092344Z 17005KT 19/12 A3014 RMK A01 T01880118  RH  064%=      5-min Rain = 0
KME1 092345Z 16004KT 19/12 A3014 RMK A01 T01870118  RH  064%=      5-min Rain = 0
KME1 092346Z 16004KT 19/12 A3014 RMK A01 T01860118  RH  065%=      5-min Rain = 0
KME1 092347Z 16004KT 19/12 A3014 RMK A01 T01850118  RH  065%=      5-min Rain = 0
KME1 092348Z 16004KT 18/12 A3014 RMK A01 T01840118  RH  065%=      5-min Rain = 0
KME1 092349Z 16004KT 18/12 A3014 RMK A01 T01830118  RH  066%=      5-min Rain = 0
KME1 092350Z 16004KT 18/12 A3014 RMK A01 T01820118  RH  066%=      5-min Rain = 0
KME1 092351Z 17004KT 18/12 A3014 RMK A01 T01810118  RH  067%=      5-min Rain = 0
KME1 092352Z 16004KT 18/12 A3014 RMK A01 T01810118  RH  067%=      5-min Rain = 0
KME1 092353Z 17005KT 18/12 A3014 RMK A01 T01800118  RH  067%=      5-min Rain = 0
KME1 092354Z 17005KT 18/12 A3014 RMK A01 T01790118  RH  067%=      5-min Rain = 0
KME1 092355Z 17005KT 18/12 A3014 RMK A01 T01780118  RH  068%=      5-min Rain = 0
KME1 092356Z 17005KT 18/12 A3014 RMK A01 T01770118  RH  068%=      5-min Rain = 0
KME1 092357Z 17004KT 18/12 A3014 RMK A01 T01760118  RH  068%=      5-min Rain = 0
KME1 092358Z 17004KT 18/12 A3014 RMK A01 T01760118  RH  069%=      5-min Rain = 0
KME1 092359Z 17004KT 18/12 A3014 RMK A01 T01750118  RH  069%=      5-min Rain = 0
KME1 100000Z 17004KT 18/12 A3014 RMK A01 T01750118  RH  069%=      5-min Rain = 0
KME1 100001Z 17004KT 17/12 A3014 RMK A01 T01740117  RH  069%=      5-min Rain = 0
KME1 100002Z 17004KT 17/12 A3014 RMK A01 T01730117  RH  070%=      5-min Rain = 0
KME1 100003Z 17004KT 17/12 A3014 RMK A01 T01730117  RH  070%=      5-min Rain = 0
KME1 100004Z 17004KT 17/12 A3014 RMK A01 T01720117  RH  070%=      5-min Rain = 0
KME1 100005Z 17005KT 17/12 A3014 RMK A01 T01710117  RH  070%=      5-min Rain = 0
KME1 100006Z 17004KT 17/12 A3014 RMK A01 T01700117  RH  071%=      5-min Rain = 0
KME1 100007Z 18004KT 17/12 A3014 RMK A01 T01690117  RH  071%=      5-min Rain = 0
KME1 100008Z 17004KT 17/12 A3014 RMK A01 T01690117  RH  071%=      5-min Rain = 0
KME1 100009Z 17005KT 17/12 A3014 RMK A01 T01680117  RH  072%=      5-min Rain = 0
KME1 100010Z 18005KT 17/12 A3014 RMK A01 T01680117  RH  072%=      5-min Rain = 0
KME1 100011Z 17004KT 17/12 A3014 RMK A01 T01670117  RH  072%=      5-min Rain = 0
KME1 100012Z 17004KT 17/12 A3014 RMK A01 T01670117  RH  072%=      5-min Rain = 0
KME1 100013Z 17004KT 17/12 A3014 RMK A01 T01670117  RH  073%=      5-min Rain = 0
KME1 100014Z 17004KT 17/12 A3014 RMK A01 T01650117  RH  073%=      5-min Rain = 0
KME1 100015Z 18004KT 17/12 A3014 RMK A01 T01650117  RH  073%=      5-min Rain = 0
KME1 100016Z 17003KT 17/12 A3014 RMK A01 T01650118  RH  074%=      5-min Rain = 0
KME1 100017Z 17003KT 17/12 A3014 RMK A01 T01650118  RH  074%=      5-min Rain = 0
KME1 100018Z 18004KT 17/12 A3014 RMK A01 T01650118  RH  074%=      5-min Rain = 0
KME1 100019Z 17003KT 17/12 A3014 RMK A01 T01650118  RH  074%=      5-min Rain = 0
KME1 100020Z 18004KT 16/12 A3014 RMK A01 T01640117  RH  074%=      5-min Rain = 0
KME1 100021Z 18004KT 17/12 A3014 RMK A01 T01650117  RH  074%=      5-min Rain = 0
KME1 100022Z 18004KT 16/12 A3014 RMK A01 T01640117  RH  074%=      5-min Rain = 0
KME1 100023Z 18004KT 16/12 A3014 RMK A01 T01630116  RH  074%=      5-min Rain = 0
KME1 100024Z 18004KT 16/12 A3014 RMK A01 T01630116  RH  074%=      5-min Rain = 0
KME1 100025Z 18004KT 16/12 A3014 RMK A01 T01610116  RH  074%=      5-min Rain = 0
KME1 100026Z 18004KT 16/12 A3014 RMK A01 T01600115  RH  075%=      5-min Rain = 0
KME1 100027Z 19003KT 16/12 A3014 RMK A01 T01590115  RH  075%=      5-min Rain = 0
KME1 100028Z 19003KT 16/12 A3014 RMK A01 T01580115  RH  076%=      5-min Rain = 0
KME1 100029Z 19003KT 16/12 A3014 RMK A01 T01570115  RH  076%=      5-min Rain = 0
KME1 100030Z 18004KT 16/12 A3014 RMK A01 T01560115  RH  077%=      5-min Rain = 0
KME1 100031Z 18004KT 16/12 A3015 RMK A01 T01560115  RH  077%=      5-min Rain = 0
KME1 100032Z 18004KT 16/12 A3015 RMK A01 T01550115  RH  077%=      5-min Rain = 0
KME1 100033Z 18004KT 16/12 A3015 RMK A01 T01550115  RH  077%=      5-min Rain = 0
KME1 100034Z 18004KT 15/12 A3014 RMK A01 T01540115  RH  077%=      5-min Rain = 0
KME1 100035Z 19003KT 15/12 A3015 RMK A01 T01530115  RH  078%=      5-min Rain = 0
KME1 100036Z 19003KT 15/12 A3015 RMK A01 T01520115  RH  078%=      5-min Rain = 0
KME1 100037Z 19003KT 15/12 A3015 RMK A01 T01520115  RH  079%=      5-min Rain = 0
KME1 100038Z 19003KT 15/12 A3015 RMK A01 T01510115  RH  079%=      5-min Rain = 0
KME1 100039Z 19003KT 15/12 A3015 RMK A01 T01510115  RH  079%=      5-min Rain = 0
KME1 100040Z 19003KT 15/12 A3015 RMK A01 T01510115  RH  079%=      5-min Rain = 0
KME1 100041Z 20003KT 15/12 A3015 RMK A01 T01510115  RH  079%=      5-min Rain = 0
KME1 100042Z 19004KT 15/12 A3015 RMK A01 T01500115  RH  079%=      5-min Rain = 0
KME1 100043Z 19003KT 15/12 A3015 RMK A01 T01490115  RH  080%=      5-min Rain = 0
KME1 100044Z 19003KT 15/12 A3015 RMK A01 T01490115  RH  080%=      5-min Rain = 0
KME1 100045Z 20004KT 15/12 A3015 RMK A01 T01480115  RH  081%=      5-min Rain = 0
KME1 100046Z 20004KT 15/12 A3015 RMK A01 T01480115  RH  081%=      5-min Rain = 0
KME1 100047Z 20004KT 15/12 A3015 RMK A01 T01480115  RH  081%=      5-min Rain = 0
KME1 100048Z 20004KT 15/12 A3015 RMK A01 T01470115  RH  081%=      5-min Rain = 0
KME1 100049Z 20004KT 15/12 A3015 RMK A01 T01470115  RH  081%=      5-min Rain = 0
KME1 100050Z 20004KT 15/12 A3015 RMK A01 T01450115  RH  082%=      5-min Rain = 0
KME1 100051Z 20004KT 15/12 A3015 RMK A01 T01450115  RH  082%=      5-min Rain = 0
KME1 100052Z 20004KT 14/12 A3015 RMK A01 T01440115  RH  082%=      5-min Rain = 0
KME1 100053Z 20004KT 14/12 A3015 RMK A01 T01430115  RH  083%=      5-min Rain = 0
KME1 100054Z 20004KT 14/12 A3015 RMK A01 T01430115  RH  083%=      5-min Rain = 0
KME1 100055Z 20004KT 14/12 A3015 RMK A01 T01430116  RH  084%=      5-min Rain = 0
KME1 100056Z 20004KT 14/12 A3015 RMK A01 T01430116  RH  084%=      5-min Rain = 0
KME1 100057Z 20004KT 14/12 A3015 RMK A01 T01430116  RH  084%=      5-min Rain = 0
KME1 100058Z 20004KT 14/12 A3015 RMK A01 T01420115  RH  084%=      5-min Rain = 0
KME1 100059Z 20004KT 14/12 A3015 RMK A01 T01420115  RH  084%=      5-min Rain = 0
KME1 100100Z 20004KT 14/12 A3015 RMK A01 T01420116  RH  085%=      5-min Rain = 0
KME1 100101Z 20004KT 14/12 A3015 RMK A01 T01410116  RH  085%=      5-min Rain = 0
KME1 100102Z 20004KT 14/12 A3015 RMK A01 T01410116  RH  085%=      5-min Rain = 0
KME1 100103Z 20004KT 14/12 A3015 RMK A01 T01400115  RH  084%=      5-min Rain = 0
KME1 100104Z 19004KT 14/11 A3015 RMK A01 T01390114  RH  085%=      5-min Rain = 0
KME1 100105Z 19005KT 14/12 A3015 RMK A01 T01390115  RH  086%=      5-min Rain = 0
KME1 100106Z 20004KT 14/12 A3015 RMK A01 T01380116  RH  086%=      5-min Rain = 0
KME1 100107Z 20004KT 14/12 A3015 RMK A01 T01380116  RH  087%=      5-min Rain = 0
KME1 100108Z 20005KT 14/12 A3015 RMK A01 T01380117  RH  087%=      5-min Rain = 0
KME1 100109Z 20004KT 14/12 A3015 RMK A01 T01380116  RH  087%=      5-min Rain = 0
KME1 100110Z 20005KT 14/12 A3015 RMK A01 T01380116  RH  087%=      5-min Rain = 0
KME1 100116Z 21004KT 13/12 A3015 RMK A01 T01340116  RH  089%=      5-min Rain = 0
KME1 100117Z 21004KT 13/12 A3015 RMK A01 T01330117  RH  090%=      5-min Rain = 0
KME1 100118Z 21004KT 13/12 A3015 RMK A01 T01320117  RH  091%=      5-min Rain = 0
KME1 100119Z 21004KT 13/12 A3015 RMK A01 T01320118  RH  091%=      5-min Rain = 0
KME1 100120Z 21004KT 13/12 A3015 RMK A01 T01310117  RH  091%=      5-min Rain = 0
KME1 100121Z 21004KT 13/12 A3015 RMK A01 T01310117  RH  091%=      5-min Rain = 0
KME1 100122Z 21004KT 13/12 A3015 RMK A01 T01300116  RH  091%=      5-min Rain = 0
KME1 100123Z 21005KT 13/12 A3015 RMK A01 T01300116  RH  091%=      5-min Rain = 0
KME1 100124Z 21005KT 13/12 A3016 RMK A01 T01290115  RH  091%=      5-min Rain = 0
KME1 100125Z 21005KT 13/12 A3016 RMK A01 T01290116  RH  092%=      5-min Rain = 0
KME1 100126Z 21005KT 13/12 A3016 RMK A01 T01280116  RH  093%=      5-min Rain = 0
KME1 100127Z 21005KT 13/12 A3016 RMK A01 T01280117  RH  093%=      5-min Rain = 0
KME1 100128Z 21005KT 13/12 A3016 RMK A01 T01280117  RH  093%=      5-min Rain = 0
KME1 100129Z 21006KT 13/12 A3016 RMK A01 T01280118  RH  094%=      5-min Rain = 0
KME1 100130Z 21006KT 13/12 A3016 RMK A01 T01280118  RH  094%=      5-min Rain = 0
KME1 100131Z 21006KT 13/12 A3016 RMK A01 T01280119  RH  094%=      5-min Rain = 0
KME1 100132Z 22006KT 13/12 A3016 RMK A01 T01280119  RH  094%=      5-min Rain = 0
KME1 100133Z 22006KT 13/12 A3016 RMK A01 T01280119  RH  094%=      5-min Rain = 0
KME1 100134Z 22006KT 13/12 A3016 RMK A01 T01280119  RH  094%=      5-min Rain = 0
KME1 100135Z 22006KT 13/12 A3016 RMK A01 T01280119  RH  094%=      5-min Rain = 0
KME1 100136Z 22005KT 13/12 A3016 RMK A01 T01270119  RH  094%=      5-min Rain = 0
KME1 100137Z 22005KT 13/12 A3016 RMK A01 T01270118  RH  094%=      5-min Rain = 0
KME1 100138Z 22005KT 13/12 A3016 RMK A01 T01270119  RH  094%=      5-min Rain = 0
KME1 100139Z 22005KT 13/12 A3016 RMK A01 T01270119  RH  095%=      5-min Rain = 0
KME1 100140Z 22005KT 13/12 A3016 RMK A01 T01270119  RH  095%=      5-min Rain = 0
KME1 100141Z 22006KT 13/12 A3016 RMK A01 T01270119  RH  095%=      5-min Rain = 0
KME1 100142Z 21005KT 13/12 A3016 RMK A01 T01270119  RH  095%=      5-min Rain = 0
KME1 100143Z 21005KT 13/12 A3016 RMK A01 T01270119  RH  095%=      5-min Rain = 0
KME1 100144Z 21005KT 13/12 A3016 RMK A01 T01270119  RH  095%=      5-min Rain = 0
KME1 100145Z 21005KT 13/12 A3016 RMK A01 T01270119  RH  095%=      5-min Rain = 0
KME1 100146Z 21005KT 13/12 A3016 RMK A01 T01270119  RH  095%=      5-min Rain = 0
KME1 100147Z 21005KT 13/12 A3016 RMK A01 T01270118  RH  094%=      5-min Rain = 0
KME1 100148Z 21005KT 13/12 A3016 RMK A01 T01270118  RH  094%=      5-min Rain = 0
KME1 100149Z 21005KT 13/12 A3016 RMK A01 T01270117  RH  094%=      5-min Rain = 0
KME1 100150Z 21005KT 13/12 A3016 RMK A01 T01270118  RH  094%=      5-min Rain = 0
KME1 100151Z 21005KT 13/12 A3016 RMK A01 T01270118  RH  094%=      5-min Rain = 0
KME1 100152Z 21005KT 13/12 A3016 RMK A01 T01270118  RH  094%=      5-min Rain = 0
KME1 100153Z 21005KT 13/12 A3016 RMK A01 T01270118  RH  095%=      5-min Rain = 0
KME1 100154Z 21005KT 13/12 A3016 RMK A01 T01270118  RH  095%=      5-min Rain = 0
KME1 100155Z 21005KT 13/12 A3016 RMK A01 T01270118  RH  095%=      5-min Rain = 0
KME1 100156Z 21005KT 13/12 A3016 RMK A01 T01270118  RH  095%=      5-min Rain = 0
KME1 100157Z 21005KT 13/12 A3016 RMK A01 T01270118  RH  095%=      5-min Rain = 0
KME1 100158Z 21005KT 13/12 A3016 RMK A01 T01270118  RH  094%=      5-min Rain = 0
KME1 100159Z 21005KT 13/12 A3016 RMK A01 T01270118  RH  094%=      5-min Rain = 0
KME1 100200Z 21005KT 13/12 A3016 RMK A01 T01270117  RH  094%=      5-min Rain = 0
KME1 100201Z 21005KT 13/12 A3016 RMK A01 T01270117  RH  094%=      5-min Rain = 0
KME1 100202Z 21006KT 13/12 A3016 RMK A01 T01270117  RH  094%=      5-min Rain = 0
KME1 100203Z 21006KT 13/12 A3016 RMK A01 T01260117  RH  094%=      5-min Rain = 0
KME1 100204Z 21006KT 13/12 A3016 RMK A01 T01260116  RH  094%=      5-min Rain = 0
KME1 100205Z 21006KT 13/12 A3016 RMK A01 T01260117  RH  094%=      5-min Rain = 0
KME1 100206Z 21005KT 13/12 A3016 RMK A01 T01250117  RH  095%=      5-min Rain = 0
KME1 100207Z 21005KT 12/12 A3016 RMK A01 T01240117  RH  095%=      5-min Rain = 0
KME1 100208Z 21005KT 12/12 A3016 RMK A01 T01240117  RH  096%=      5-min Rain = 0
KME1 100209Z 21005KT 12/12 A3016 RMK A01 T01240117  RH  096%=      5-min Rain = 0
KME1 100210Z 21005KT 12/12 A3016 RMK A01 T01240118  RH  096%=      5-min Rain = 0
KME1 100211Z 21005KT 12/12 A3016 RMK A01 T01230119  RH  097%=      5-min Rain = 0
KME1 100212Z 21005KT 12/12 A3016 RMK A01 T01240119  RH  097%=      5-min Rain = 0
KME1 100213Z 21005KT 12/12 A3016 RMK A01 T01240120  RH  097%=      5-min Rain = 0
KME1 100214Z 21005KT 13/12 A3016 RMK A01 T01250120  RH  097%=      5-min Rain = 0
KME1 100215Z 21004KT 13/12 A3016 RMK A01 T01250119  RH  096%=      5-min Rain = 0
KME1 100216Z 21004KT 13/12 A3016 RMK A01 T01250119  RH  096%=      5-min Rain = 0
KME1 100217Z 21004KT 13/12 A3016 RMK A01 T01250119  RH  096%=      5-min Rain = 0
KME1 100218Z 21004KT 13/12 A3016 RMK A01 T01250119  RH  096%=      5-min Rain = 0
KME1 100219Z 21004KT 13/12 A3016 RMK A01 T01250119  RH  096%=      5-min Rain = 0
KME1 100220Z 21004KT 13/12 A3016 RMK A01 T01250118  RH  095%=      5-min Rain = 0
KME1 100221Z 21004KT 13/12 A3016 RMK A01 T01250117  RH  095%=      5-min Rain = 0
KME1 100222Z 21004KT 12/12 A3016 RMK A01 T01240117  RH  095%=      5-min Rain = 0
KME1 100223Z 21004KT 12/12 A3016 RMK A01 T01240117  RH  095%=      5-min Rain = 0
KME1 100224Z 21004KT 12/12 A3016 RMK A01 T01240117  RH  096%=      5-min Rain = 0
KME1 100225Z 21005KT 12/12 A3016 RMK A01 T01230117  RH  096%=      5-min Rain = 0
KME1 100226Z 21005KT 12/12 A3016 RMK A01 T01230117  RH  096%=      5-min Rain = 0
KME1 100227Z 21005KT 12/12 A3016 RMK A01 T01230117  RH  096%=      5-min Rain = 0
KME1 100228Z 21006KT 12/12 A3016 RMK A01 T01220117  RH  096%=      5-min Rain = 0
KME1 100229Z 20006KT 12/12 A3016 RMK A01 T01220117  RH  097%=      5-min Rain = 0
KME1 100230Z 20006KT 12/12 A3016 RMK A01 T01220118  RH  097%=      5-min Rain = 0
KME1 100231Z 20006KT 12/12 A3015 RMK A01 T01220118  RH  098%=      5-min Rain = 0
KME1 100232Z 20006KT 12/12 A3015 RMK A01 T01210118  RH  098%=      5-min Rain = 0
KME1 100233Z 20006KT 12/12 A3015 RMK A01 T01210119  RH  098%=      5-min Rain = 0
KME1 100234Z 20006KT 12/12 A3015 RMK A01 T01210119  RH  099%=      5-min Rain = 0
KME1 100235Z 20006KT 12/12 A3015 RMK A01 T01210120  RH  099%=      5-min Rain = 0
KME1 100236Z 20006KT 12/12 A3015 RMK A01 T01210120  RH  099%=      5-min Rain = 0
KME1 100237Z 20006KT 12/12 A3015 RMK A01 T01210120  RH  099%=      5-min Rain = 0
KME1 100238Z 20006KT 12/12 A3015 RMK A01 T01210120  RH  099%=      5-min Rain = 0
KME1 100239Z 20006KT 12/12 A3015 RMK A01 T01210120  RH  099%=      5-min Rain = 0
KME1 100240Z 20006KT 12/12 A3015 RMK A01 T01210120  RH  099%=      5-min Rain = 0
KME1 100241Z 20005KT 12/12 A3016 RMK A01 T01210119  RH  099%=      5-min Rain = 0
KME1 100242Z 20005KT 12/12 A3016 RMK A01 T01210119  RH  099%=      5-min Rain = 0
KME1 100243Z 19005KT 12/12 A3016 RMK A01 T01210119  RH  099%=      5-min Rain = 0
KME1 100244Z 20005KT 12/12 A3016 RMK A01 T01200119  RH  099%=      5-min Rain = 0
KME1 100245Z 20005KT 12/12 A3016 RMK A01 T01200119  RH  099%=      5-min Rain = 0
KME1 100246Z 20005KT 12/12 A3016 RMK A01 T01200118  RH  098%=      5-min Rain = 0
KME1 100247Z 20005KT 12/12 A3016 RMK A01 T01190117  RH  098%=      5-min Rain = 0
KME1 100248Z 19005KT 12/12 A3016 RMK A01 T01190118  RH  099%=      5-min Rain = 0
KME1 100249Z 20005KT 12/12 A3016 RMK A01 T01190117  RH  099%=      5-min Rain = 0
KME1 100250Z 20005KT 12/12 A3016 RMK A01 T01190117  RH  099%=      5-min Rain = 0
KME1 100251Z 20005KT 12/12 A3016 RMK A01 T01180117  RH  099%=      5-min Rain = 0
KME1 100252Z 20005KT 12/12 A3016 RMK A01 T01180118  RH  100%=      5-min Rain = 0
KME1 100253Z 20005KT 12/12 A3016 RMK A01 T01180118  RH  100%=      5-min Rain = 0
KME1 100254Z 19005KT 12/12 A3016 RMK A01 T01170118  RH  100%=      5-min Rain = 0
KME1 100255Z 19005KT 12/12 A3016 RMK A01 T01180118  RH  100%=      5-min Rain = 0
KME1 100256Z 20005KT 12/12 A3016 RMK A01 T01180118  RH  100%=      5-min Rain = 0
KME1 100257Z 20005KT 12/12 A3016 RMK A01 T01170117  RH  100%=      5-min Rain = 0
KME1 100258Z 20005KT 12/12 A3016 RMK A01 T01170117  RH  100%=      5-min Rain = 0
KME1 100259Z 20005KT 12/12 A3016 RMK A01 T01170117  RH  100%=      5-min Rain = 0
KME1 100300Z 20006KT 12/12 A3016 RMK A01 T01170117  RH  100%=      5-min Rain = 0
KME1 100301Z 20006KT 12/12 A3016 RMK A01 T01170117  RH  100%=      5-min Rain = 0
KME1 100302Z 20006KT 12/12 A3016 RMK A01 T01170117  RH  100%=      5-min Rain = 0
KME1 100303Z 20006KT 12/12 A3016 RMK A01 T01170117  RH  100%=      5-min Rain = 0
KME1 100304Z 20006KT 12/12 A3016 RMK A01 T01170117  RH  100%=      5-min Rain = 0
KME1 100305Z 20006KT 12/12 A3016 RMK A01 T01170118  RH  100%=      5-min Rain = 0
KME1 100306Z 20006KT 12/12 A3016 RMK A01 T01180118  RH  100%=      5-min Rain = 0
KME1 100307Z 20005KT 12/12 A3016 RMK A01 T01190120  RH  100%=      5-min Rain = 0
KME1 100308Z 20006KT 12/12 A3016 RMK A01 T01210121  RH  100%=      5-min Rain = 0
KME1 100309Z 20006KT 12/12 A3016 RMK A01 T01210121  RH  100%=      5-min Rain = 0
KME1 100310Z 20005KT 12/12 A3016 RMK A01 T01210121  RH  100%=      5-min Rain = 0
KME1 100311Z 20006KT 12/12 A3016 RMK A01 T01210121  RH  100%=      5-min Rain = 0
KME1 100312Z 20006KT 12/12 A3016 RMK A01 T01220122  RH  100%=      5-min Rain = 0
KME1 100313Z 20005KT 12/12 A3016 RMK A01 T01230122  RH  099%=      5-min Rain = 0
KME1 100314Z 20006KT 12/12 A3016 RMK A01 T01240122  RH  099%=      5-min Rain = 0
KME1 100315Z 20005KT 12/12 A3016 RMK A01 T01240121  RH  098%=      5-min Rain = 0
KME1 100316Z 21005KT 13/12 A3016 RMK A01 T01250121  RH  097%=      5-min Rain = 0
KME1 100317Z 21005KT 13/12 A3016 RMK A01 T01250120  RH  097%=      5-min Rain = 0
KME1 100318Z 21005KT 13/12 A3016 RMK A01 T01250120  RH  097%=      5-min Rain = 0
KME1 100319Z 21005KT 12/12 A3016 RMK A01 T01240120  RH  097%=      5-min Rain = 0
KME1 100320Z 21006KT 12/12 A3016 RMK A01 T01240120  RH  098%=      5-min Rain = 0
KME1 100321Z 21006KT 12/12 A3016 RMK A01 T01240120  RH  098%=      5-min Rain = 0
KME1 100322Z 21006KT 12/12 A3016 RMK A01 T01230120  RH  098%=      5-min Rain = 0
KME1 100323Z 21006KT 12/12 A3016 RMK A01 T01240120  RH  098%=      5-min Rain = 0
KME1 100324Z 21006KT 12/12 A3016 RMK A01 T01240120  RH  097%=      5-min Rain = 0
KME1 100325Z 21006KT 12/12 A3016 RMK A01 T01240120  RH  097%=      5-min Rain = 0
KME1 100326Z 21006KT 12/12 A3016 RMK A01 T01230119  RH  097%=      5-min Rain = 0
KME1 100327Z 21005KT 12/12 A3016 RMK A01 T01230119  RH  098%=      5-min Rain = 0
KME1 100328Z 21006KT 12/12 A3016 RMK A01 T01230119  RH  098%=      5-min Rain = 0
KME1 100329Z 21005KT 12/12 A3016 RMK A01 T01220119  RH  098%=      5-min Rain = 0
KME1 100330Z 22005KT 12/12 A3016 RMK A01 T01220119  RH  098%=      5-min Rain = 0
KME1 100331Z 22005KT 12/12 A3016 RMK A01 T01220119  RH  098%=      5-min Rain = 0
KME1 100332Z 22004KT 12/12 A3016 RMK A01 T01210119  RH  098%=      5-min Rain = 0
KME1 100333Z 22005KT 12/12 A3016 RMK A01 T01210118  RH  098%=      5-min Rain = 0
KME1 100334Z 22005KT 12/12 A3016 RMK A01 T01200118  RH  098%=      5-min Rain = 0
KME1 100335Z 22005KT 12/12 A3016 RMK A01 T01200118  RH  098%=      5-min Rain = 0
KME1 100336Z 23004KT 12/12 A3016 RMK A01 T01200117  RH  098%=      5-min Rain = 0
KME1 100337Z 23005KT 12/12 A3016 RMK A01 T01190117  RH  099%=      5-min Rain = 0
KME1 100338Z 23005KT 12/12 A3016 RMK A01 T01190118  RH  099%=      5-min Rain = 0
KME1 100339Z 22005KT 12/12 A3016 RMK A01 T01190118  RH  099%=      5-min Rain = 0
KME1 100340Z 22005KT 12/12 A3016 RMK A01 T01190118  RH  099%=      5-min Rain = 0
KME1 100341Z 23006KT 12/12 A3016 RMK A01 T01190119  RH  100%=      5-min Rain = 0
KME1 100342Z 23006KT 12/12 A3016 RMK A01 T01190119  RH  100%=      5-min Rain = 0
KME1 100343Z 22006KT 12/12 A3016 RMK A01 T01190119  RH  100%=      5-min Rain = 0
KME1 100344Z 22006KT 12/12 A3016 RMK A01 T01190118  RH  100%=      5-min Rain = 0
KME1 100345Z 22006KT 12/12 A3016 RMK A01 T01190119  RH  100%=      5-min Rain = 0
KME1 100346Z 22006KT 12/12 A3016 RMK A01 T01190119  RH  100%=      5-min Rain = 0
KME1 100347Z 22006KT 12/12 A3016 RMK A01 T01190119  RH  100%=      5-min Rain = 0
KME1 100348Z 22006KT 12/12 A3016 RMK A01 T01190119  RH  100%=      5-min Rain = 0
KME1 100349Z 21006KT 12/12 A3016 RMK A01 T01190119  RH  100%=      5-min Rain = 0
KME1 100350Z 21005KT 12/12 A3016 RMK A01 T01190119  RH  100%=      5-min Rain = 0
KME1 100351Z 21005KT 12/12 A3016 RMK A01 T01180118  RH  100%=      5-min Rain = 0
KME1 100352Z 21005KT 12/12 A3016 RMK A01 T01180119  RH  100%=      5-min Rain = 0
KME1 100353Z 20005KT 12/12 A3016 RMK A01 T01190119  RH  100%=      5-min Rain = 0
KME1 100354Z 20005KT 12/12 A3016 RMK A01 T01190119  RH  100%=      5-min Rain = 0
KME1 100355Z 20006KT 12/12 A3016 RMK A01 T01200120  RH  100%=      5-min Rain = 0
KME1 100356Z 20005KT 12/12 A3016 RMK A01 T01200119  RH  100%=      5-min Rain = 0
KME1 100357Z 20005KT 12/12 A3016 RMK A01 T01200119  RH  099%=      5-min Rain = 0
KME1 100358Z 20005KT 12/12 A3016 RMK A01 T01200119  RH  099%=      5-min Rain = 0
KME1 100359Z 20006KT 12/12 A3016 RMK A01 T01200119  RH  099%=      5-min Rain = 0
KME1 100400Z 20005KT 12/12 A3016 RMK A01 T01200119  RH  099%=      5-min Rain = 0
KME1 100401Z 20005KT 12/12 A3016 RMK A01 T01200119  RH  099%=      5-min Rain = 0
KME1 100402Z 20005KT 12/12 A3016 RMK A01 T01200119  RH  099%=      5-min Rain = 0
KME1 100403Z 20005KT 12/12 A3016 RMK A01 T01210119  RH  099%=      5-min Rain = 0
KME1 100404Z 20005KT 12/12 A3016 RMK A01 T01200118  RH  099%=      5-min Rain = 0
KME1 100405Z 20005KT 12/12 A3016 RMK A01 T01200118  RH  099%=      5-min Rain = 0
KME1 100406Z 20005KT 12/12 A3016 RMK A01 T01200118  RH  099%=      5-min Rain = 0
KME1 100407Z 20005KT 12/12 A3016 RMK A01 T01190117  RH  099%=      5-min Rain = 0
KME1 100408Z 20005KT 12/12 A3016 RMK A01 T01190118  RH  099%=      5-min Rain = 0
KME1 100409Z 19005KT 12/12 A3016 RMK A01 T01190119  RH  100%=      5-min Rain = 0
KME1 100410Z 19004KT 12/12 A3016 RMK A01 T01190118  RH  099%=      5-min Rain = 0
KME1 100411Z 19005KT 12/12 A3016 RMK A01 T01190118  RH  099%=      5-min Rain = 0
KME1 100412Z 19005KT 12/12 A3016 RMK A01 T01190117  RH  099%=      5-min Rain = 0
KME1 100413Z 18004KT 12/12 A3016 RMK A01 T01190117  RH  099%=      5-min Rain = 0
KME1 100414Z 19005KT 12/12 A3016 RMK A01 T01190117  RH  098%=      5-min Rain = 0
KME1 100415Z 19004KT 12/12 A3016 RMK A01 T01200117  RH  098%=      5-min Rain = 0
KME1 100416Z 19004KT 12/12 A3016 RMK A01 T01190117  RH  098%=      5-min Rain = 0
KME1 100417Z 19004KT 12/12 A3016 RMK A01 T01190117  RH  099%=      5-min Rain = 0
KME1 100418Z 18004KT 12/12 A3016 RMK A01 T01190116  RH  098%=      5-min Rain = 0
KME1 100419Z 18004KT 12/12 A3016 RMK A01 T01190115  RH  098%=      5-min Rain = 0
KME1 100420Z 18003KT 12/12 A3016 RMK A01 T01180115  RH  098%=      5-min Rain = 0
KME1 100421Z 18003KT 12/12 A3016 RMK A01 T01180116  RH  099%=      5-min Rain = 0
KME1 100422Z 18003KT 12/12 A3016 RMK A01 T01180116  RH  099%=      5-min Rain = 0
KME1 100423Z 19003KT 12/12 A3016 RMK A01 T01180115  RH  098%=      5-min Rain = 0
KME1 100424Z 19003KT 12/12 A3016 RMK A01 T01180115  RH  098%=      5-min Rain = 0
KME1 100425Z 19003KT 12/12 A3016 RMK A01 T01180116  RH  099%=      5-min Rain = 0
KME1 100426Z 19004KT 12/12 A3016 RMK A01 T01180116  RH  099%=      5-min Rain = 0
KME1 100427Z 19003KT 12/12 A3016 RMK A01 T01180116  RH  099%=      5-min Rain = 0
KME1 100428Z 19003KT 12/12 A3016 RMK A01 T01180115  RH  098%=      5-min Rain = 0
KME1 100429Z 19003KT 12/12 A3016 RMK A01 T01170115  RH  098%=      5-min Rain = 0
KME1 100430Z 19004KT 12/12 A3016 RMK A01 T01180117  RH  100%=      5-min Rain = 0
KME1 100431Z 19003KT 12/12 A3016 RMK A01 T01180116  RH  098%=      5-min Rain = 0
KME1 100432Z 19004KT 12/12 A3016 RMK A01 T01180115  RH  098%=      5-min Rain = 0
KME1 100433Z 19004KT 12/12 A3016 RMK A01 T01180115  RH  098%=      5-min Rain = 0
KME1 100434Z 19004KT 12/11 A3016 RMK A01 T01180113  RH  097%=      5-min Rain = 0
KME1 100435Z 19004KT 12/11 A3016 RMK A01 T01170114  RH  097%=      5-min Rain = 0
KME1 100436Z 19003KT 12/12 A3016 RMK A01 T01170115  RH  099%=      5-min Rain = 0
KME1 100437Z 19004KT 12/12 A3016 RMK A01 T01180115  RH  098%=      5-min Rain = 0
KME1 100438Z 19004KT 12/11 A3016 RMK A01 T01180114  RH  098%=      5-min Rain = 0
KME1 100439Z 19003KT 12/11 A3016 RMK A01 T01180114  RH  097%=      5-min Rain = 0
KME1 100440Z 18003KT 12/11 A3016 RMK A01 T01180114  RH  097%=      5-min Rain = 0
KME1 100441Z 19003KT 12/12 A3016 RMK A01 T01180115  RH  098%=      5-min Rain = 0
KME1 100442Z 18002KT 12/12 A3016 RMK A01 T01180116  RH  099%=      5-min Rain = 0
KME1 100443Z 19002KT 12/12 A3016 RMK A01 T01180115  RH  098%=      5-min Rain = 0
KME1 100444Z 17003KT 12/12 A3016 RMK A01 T01190115  RH  098%=      5-min Rain = 0
KME1 100445Z 18002KT 12/12 A3016 RMK A01 T01190115  RH  097%=      5-min Rain = 0
KME1 100446Z 17002KT 12/11 A3016 RMK A01 T01190114  RH  097%=      5-min Rain = 0
KME1 100447Z 18003KT 12/12 A3016 RMK A01 T01190115  RH  097%=      5-min Rain = 0
KME1 100448Z 17002KT 12/11 A3016 RMK A01 T01190113  RH  096%=      5-min Rain = 0
KME1 100449Z 17003KT 12/11 A3016 RMK A01 T01190113  RH  096%=      5-min Rain = 0
KME1 100450Z 19003KT 12/11 A3016 RMK A01 T01190114  RH  097%=      5-min Rain = 0
KME1 100451Z 17003KT 12/11 A3016 RMK A01 T01190113  RH  096%=      5-min Rain = 0
KME1 100452Z 18004KT 12/11 A3016 RMK A01 T01190113  RH  096%=      5-min Rain = 0
KME1 100453Z 19004KT 12/12 A3016 RMK A01 T01200115  RH  097%=      5-min Rain = 0
KME1 100454Z 19004KT 12/12 A3016 RMK A01 T01200115  RH  096%=      5-min Rain = 0
KME1 100455Z 18004KT 12/12 A3016 RMK A01 T01200115  RH  096%=      5-min Rain = 0
KME1 100456Z 18004KT 12/11 A3016 RMK A01 T01200114  RH  096%=      5-min Rain = 0
KME1 100457Z 18004KT 12/11 A3016 RMK A01 T01200113  RH  096%=      5-min Rain = 0
KME1 100458Z 18005KT 12/11 A3016 RMK A01 T01190114  RH  096%=      5-min Rain = 0
KME1 100459Z 18005KT 12/11 A3016 RMK A01 T01190113  RH  096%=      5-min Rain = 0
KME1 100500Z 18004KT 12/11 A3016 RMK A01 T01190114  RH  097%=      5-min Rain = 0
KME1 100501Z 17004KT 12/12 A3015 RMK A01 T01190115  RH  098%=      5-min Rain = 0
KME1 100502Z 18004KT 12/12 A3015 RMK A01 T01180115  RH  098%=      5-min Rain = 0
KME1 100503Z 17005KT 12/12 A3015 RMK A01 T01180115  RH  098%=      5-min Rain = 0
KME1 100504Z 18004KT 12/12 A3015 RMK A01 T01180115  RH  098%=      5-min Rain = 0
KME1 100505Z 18005KT 12/12 A3015 RMK A01 T01180116  RH  099%=      5-min Rain = 0
KME1 100506Z 18004KT 12/12 A3015 RMK A01 T01180117  RH  099%=      5-min Rain = 0
KME1 100507Z 17004KT 12/12 A3015 RMK A01 T01180117  RH  099%=      5-min Rain = 0
KME1 100508Z 18006KT 12/12 A3015 RMK A01 T01180117  RH  099%=      5-min Rain = 0
KME1 100509Z 17004KT 12/12 A3015 RMK A01 T01180117  RH  099%=      5-min Rain = 0
KME1 100510Z 17005KT 12/12 A3015 RMK A01 T01190117  RH  099%=      5-min Rain = 0
KME1 100511Z 18005KT 12/12 A3015 RMK A01 T01190118  RH  099%=      5-min Rain = 0
KME1 100512Z 18004KT 12/12 A3015 RMK A01 T01190118  RH  099%=      5-min Rain = 0
KME1 100513Z 18006KT 12/12 A3015 RMK A01 T01190117  RH  099%=      5-min Rain = 0
KME1 100514Z 18005KT 12/12 A3015 RMK A01 T01190117  RH  099%=      5-min Rain = 0
KME1 100515Z 19005KT 12/12 A3015 RMK A01 T01190118  RH  099%=      5-min Rain = 0
KME1 100516Z 18006KT 12/12 A3015 RMK A01 T01190118  RH  099%=      5-min Rain = 0
KME1 100517Z 18006KT 12/12 A3015 RMK A01 T01190119  RH  100%=      5-min Rain = 0
KME1 100518Z 17006KT 12/12 A3015 RMK A01 T01200119  RH  100%=      5-min Rain = 0
KME1 100519Z 18006KT 12/12 A3015 RMK A01 T01200119  RH  099%=      5-min Rain = 0
KME1 100520Z 18006KT 12/12 A3015 RMK A01 T01200118  RH  098%=      5-min Rain = 0
KME1 100521Z 18006KT 12/12 A3015 RMK A01 T01210118  RH  098%=      5-min Rain = 0
KME1 100522Z 18006KT 12/12 A3015 RMK A01 T01200118  RH  098%=      5-min Rain = 0
KME1 100523Z 18005KT 12/12 A3015 RMK A01 T01200118  RH  098%=      5-min Rain = 0
KME1 100524Z 18006KT 12/12 A3015 RMK A01 T01200118  RH  098%=      5-min Rain = 0
KME1 100525Z 18005KT 12/12 A3015 RMK A01 T01200119  RH  099%=      5-min Rain = 0
KME1 100526Z 18005KT 12/12 A3015 RMK A01 T01200118  RH  099%=      5-min Rain = 0
KME1 100527Z 18007KT 12/12 A3015 RMK A01 T01200118  RH  099%=      5-min Rain = 0
KME1 100528Z 18006KT 12/12 A3014 RMK A01 T01200118  RH  099%=      5-min Rain = 0
KME1 100529Z 18006KT 12/12 A3014 RMK A01 T01200118  RH  099%=      5-min Rain = 0
KME1 100530Z 18006KT 12/12 A3014 RMK A01 T01200118  RH  099%=      5-min Rain = 0
KME1 100531Z 18006KT 12/12 A3014 RMK A01 T01200118  RH  099%=      5-min Rain = 0
KME1 100532Z 19005KT 12/12 A3014 RMK A01 T01200117  RH  098%=      5-min Rain = 0
KME1 100533Z 18006KT 12/12 A3014 RMK A01 T01200118  RH  098%=      5-min Rain = 0
KME1 100534Z 18006KT 12/12 A3014 RMK A01 T01200118  RH  099%=      5-min Rain = 0
KME1 100535Z 19006KT 12/12 A3014 RMK A01 T01200118  RH  099%=      5-min Rain = 0
KME1 100536Z 18007KT 12/12 A3014 RMK A01 T01200119  RH  099%=      5-min Rain = 0
KME1 100537Z 18006KT 12/12 A3014 RMK A01 T01200119  RH  099%=      5-min Rain = 0
KME1 100538Z 19006KT 12/12 A3014 RMK A01 T01200118  RH  099%=      5-min Rain = 0
KME1 100539Z 19007KT 12/12 A3014 RMK A01 T01200118  RH  098%=      5-min Rain = 0
KME1 100540Z 18007KT 12/12 A3014 RMK A01 T01210119  RH  099%=      5-min Rain = 0
KME1 100541Z 18007KT 12/12 A3014 RMK A01 T01210118  RH  098%=      5-min Rain = 0
KME1 100542Z 19007KT 12/12 A3014 RMK A01 T01220118  RH  098%=      5-min Rain = 0
KME1 100543Z 19007KT 12/12 A3014 RMK A01 T01220118  RH  098%=      5-min Rain = 0
KME1 100544Z 19008KT 12/12 A3014 RMK A01 T01220119  RH  098%=      5-min Rain = 0
KME1 100545Z 19008KT 12/12 A3014 RMK A01 T01220118  RH  097%=      5-min Rain = 0
KME1 100546Z 19007KT 12/12 A3014 RMK A01 T01220118  RH  097%=      5-min Rain = 0
KME1 100547Z 19006KT 12/12 A3014 RMK A01 T01230117  RH  096%=      5-min Rain = 0
KME1 100548Z 19008KT 12/12 A3014 RMK A01 T01220117  RH  097%=      5-min Rain = 0
KME1 100549Z 19008KT 12/12 A3014 RMK A01 T01220118  RH  097%=      5-min Rain = 0
KME1 100550Z 19009KT 12/12 A3014 RMK A01 T01220118  RH  097%=      5-min Rain = 0
KME1 100551Z 19008KT 12/12 A3014 RMK A01 T01220117  RH  097%=      5-min Rain = 0
KME1 100552Z 18007KT 12/12 A3014 RMK A01 T01220118  RH  097%=      5-min Rain = 0
KME1 100553Z 19006KT 12/12 A3014 RMK A01 T01230118  RH  097%=      5-min Rain = 0
KME1 100554Z 19008KT 12/12 A3014 RMK A01 T01220118  RH  097%=      5-min Rain = 0
KME1 100555Z 19009KT 12/12 A3014 RMK A01 T01230118  RH  097%=      5-min Rain = 0
KME1 100556Z 19007KT 12/12 A3014 RMK A01 T01230117  RH  096%=      5-min Rain = 0
KME1 100557Z 19008KT 12/12 A3014 RMK A01 T01230117  RH  096%=      5-min Rain = 0
KME1 100558Z 19010KT 12/12 A3014 RMK A01 T01230117  RH  096%=      5-min Rain = 0
KME1 100559Z 19008KT 12/12 A3014 RMK A01 T01230117  RH  096%=      5-min Rain = 0

Page generated in 0.1457 seconds.